KLM601 EHAM-KLAX

Flight info

Callsign KLM601
Flight time N/A
Altitude 38000
Route BERGI L602 NALAX L46 GETNO DCT REMSI DCT NIBOG DCT SUNOT/M085F320 DCT 58N020W 59N030W 59N040W 57N050W DCT HOIST/N0493F320 DCT 5430N06000W 53N070W 51N080W 4830N09000W DCT KP12G DCT KP84A DCT KD63U DCT KU51Q DCT PROMT Q88 HAKMN ANJLL4
Aircraft B77W/H-SDE1E2E3FGHIJ2J3J4J5M1RWXY/LB1D1

Departure

Time 2026-04-18 05:55
Airport Amsterdam Airport Schiphol (EHAM)

Arrival

Time N/A
Airport Los Angeles International Airport (KLAX)
Time Latitude Longitude Altitude Speed Heading
2026-04-18 05:40 52.31266 4.76043 3 ft 0 kts 109°
2026-04-18 05:42 52.31273 4.76014 5 ft 4 kts 111°
2026-04-18 05:43 52.31282 4.75972 5 ft 4 kts 95°
2026-04-18 05:43 52.31278 4.75945 6 ft 2 kts 23°
2026-04-18 05:43 52.31258 4.75935 7 ft 4 kts 358°
2026-04-18 05:43 52.31232 4.75939 5 ft 3 kts 356°
2026-04-18 05:44 52.31229 4.75940 5 ft 0 kts 357°
2026-04-18 05:48 52.31230 4.75939 3 ft 2 kts 357°
2026-04-18 05:48 52.31297 4.75934 3 ft 12 kts 357°
2026-04-18 05:48 52.31382 4.75927 3 ft 12 kts 357°
2026-04-18 05:48 52.31439 4.75968 4 ft 11 kts 59°
2026-04-18 05:49 52.31450 4.76096 4 ft 12 kts 86°
2026-04-18 05:49 52.31456 4.76241 4 ft 18 kts 87°
2026-04-18 05:49 52.31465 4.76492 4 ft 23 kts 86°
2026-04-18 05:49 52.31474 4.76753 4 ft 23 kts 86°
2026-04-18 05:50 52.31481 4.77013 4 ft 23 kts 87°
2026-04-18 05:50 52.31433 4.77245 4 ft 23 kts 132°
2026-04-18 05:50 52.31328 4.77441 4 ft 23 kts 137°
2026-04-18 05:50 52.31182 4.77499 4 ft 20 kts 182°
2026-04-18 05:51 52.31076 4.77492 4 ft 14 kts 183°
2026-04-18 05:51 52.30980 4.77483 4 ft 14 kts 184°
2026-04-18 05:51 52.30884 4.77473 4 ft 14 kts 184°
2026-04-18 05:51 52.30788 4.77462 4 ft 14 kts 184°
2026-04-18 05:52 52.30692 4.77456 4 ft 14 kts 175°
2026-04-18 05:52 52.30602 4.77514 4 ft 14 kts 154°
2026-04-18 05:52 52.30532 4.77575 3 ft 7 kts 152°
2026-04-18 05:52 52.30489 4.77611 3 ft 7 kts 152°
2026-04-18 05:53 52.30443 4.77634 4 ft 7 kts 179°
2026-04-18 05:53 52.30400 4.77602 3 ft 7 kts 232°
2026-04-18 05:53 52.30395 4.77588 3 ft 0 kts 239°
2026-04-18 05:54 52.30325 4.77399 2 ft 55 kts 238°
2026-04-18 05:55 52.29983 4.76517 3 ft 127 kts 238°
2026-04-18 05:55 52.29398 4.74995 3 ft 185 kts 237°
2026-04-18 05:55 52.28666 4.73087 321 ft 197 kts 238°
2026-04-18 05:55 52.27986 4.71251 1234 ft 185 kts 240°
2026-04-18 05:56 52.27333 4.69435 1844 ft 189 kts 241°
2026-04-18 05:56 52.26637 4.67485 2046 ft 208 kts 240°
2026-04-18 05:56 52.25875 4.65361 2341 ft 223 kts 240°
2026-04-18 05:56 52.25080 4.63126 2815 ft 233 kts 240°
2026-04-18 05:57 52.23591 4.58311 3756 ft 246 kts 262°
2026-04-18 05:57 52.23778 4.55526 4314 ft 253 kts 291°
2026-04-18 05:57 52.24771 4.53146 4966 ft 260 kts 315°
2026-04-18 05:58 52.26270 4.51453 5518 ft 265 kts 326°
2026-04-18 05:58 52.27873 4.49908 6130 ft 269 kts 326°
2026-04-18 05:58 52.29484 4.48340 6798 ft 270 kts 326°
2026-04-18 05:58 52.31101 4.46751 7382 ft 273 kts 326°
2026-04-18 05:59 52.32732 4.45135 7950 ft 276 kts 325°
2026-04-18 05:59 52.34383 4.43492 8527 ft 279 kts 325°
2026-04-18 05:59 52.36108 4.42019 9005 ft 285 kts 341°
2026-04-18 05:59 52.38104 4.41576 9364 ft 293 kts 353°
2026-04-18 06:00 52.40154 4.41322 9893 ft 297 kts 352°
2026-04-18 06:00 52.42221 4.41031 10426 ft 300 kts 351°
2026-04-18 06:00 52.44355 4.40713 10637 ft 317 kts 351°
2026-04-18 06:00 52.46617 4.40366 10788 ft 336 kts 351°
2026-04-18 06:01 52.48975 4.39999 10942 ft 355 kts 351°
2026-04-18 06:01 52.51532 4.39599 11123 ft 372 kts 352°
2026-04-18 06:01 52.54141 4.39191 11579 ft 382 kts 352°
2026-04-18 06:01 52.56819 4.38771 12167 ft 389 kts 352°
2026-04-18 06:02 52.59523 4.38346 12902 ft 391 kts 352°
2026-04-18 06:02 52.62209 4.37922 13643 ft 394 kts 351°
2026-04-18 06:02 52.64959 4.37486 14305 ft 399 kts 351°
2026-04-18 06:02 52.67739 4.37043 14905 ft 403 kts 351°
2026-04-18 06:03 52.70542 4.36592 15519 ft 406 kts 350°
2026-04-18 06:03 52.73275 4.35515 15901 ft 404 kts 330°
2026-04-18 06:03 52.75558 4.32881 16415 ft 400 kts 311°
2026-04-18 06:03 52.77263 4.29309 17118 ft 393 kts 297°
2026-04-18 06:04 52.78599 4.25409 17703 ft 396 kts 295°
2026-04-18 06:04 52.79925 4.21387 18311 ft 401 kts 295°
2026-04-18 06:04 52.81260 4.17311 18886 ft 404 kts 294°
2026-04-18 06:04 52.82607 4.13221 19492 ft 406 kts 294°
2026-04-18 06:05 52.83966 4.09122 20096 ft 408 kts 294°
2026-04-18 06:05 52.85339 4.05006 20666 ft 410 kts 294°
2026-04-18 06:05 52.86723 4.00867 21243 ft 413 kts 294°
2026-04-18 06:05 52.88122 3.96685 21780 ft 416 kts 294°
2026-04-18 06:06 52.89529 3.92474 22321 ft 419 kts 293°
2026-04-18 06:06 52.90940 3.88249 22865 ft 421 kts 293°
2026-04-18 06:06 52.92362 3.83982 23368 ft 424 kts 293°
2026-04-18 06:06 52.93793 3.79678 23861 ft 427 kts 293°
2026-04-18 06:07 52.95230 3.75354 24296 ft 429 kts 292°
2026-04-18 06:07 52.96675 3.70995 24696 ft 432 kts 292°
2026-04-18 06:07 52.98126 3.66611 25098 ft 435 kts 292°
2026-04-18 06:07 52.99590 3.62185 25509 ft 437 kts 292°
2026-04-18 06:08 53.01033 3.57816 25896 ft 440 kts 292°
2026-04-18 06:08 53.02512 3.53341 26332 ft 442 kts 292°
2026-04-18 06:08 53.04005 3.48843 26711 ft 445 kts 291°
2026-04-18 06:08 53.05503 3.44329 27075 ft 447 kts 291°
2026-04-18 06:09 53.07007 3.39786 27450 ft 450 kts 291°
2026-04-18 06:09 53.08504 3.35204 27819 ft 450 kts 289°
2026-04-18 06:09 53.09770 3.30467 28170 ft 447 kts 284°
2026-04-18 06:09 53.10768 3.25582 28511 ft 444 kts 279°
2026-04-18 06:10 53.11471 3.20600 28833 ft 442 kts 275°
2026-04-18 06:10 53.12113 3.15583 29156 ft 444 kts 275°
2026-04-18 06:10 53.12761 3.10543 29454 ft 446 kts 275°
2026-04-18 06:10 53.13407 3.05556 29804 ft 448 kts 276°
2026-04-18 06:11 53.14069 3.00486 30125 ft 448 kts 275°
2026-04-18 06:11 53.14736 2.95405 30487 ft 447 kts 275°
2026-04-18 06:11 53.15399 2.90347 30802 ft 446 kts 275°
2026-04-18 06:11 53.15838 2.86991 30979 ft 446 kts 275°
2026-04-18 06:12 53.16496 2.81936 31240 ft 447 kts 276°
2026-04-18 06:12 53.17153 2.76875 31497 ft 447 kts 276°
2026-04-18 06:12 53.17806 2.71822 31767 ft 446 kts 276°
2026-04-18 06:12 53.18459 2.66752 32027 ft 446 kts 276°
2026-04-18 06:13 53.19112 2.61663 32112 ft 450 kts 276°
2026-04-18 06:13 53.20418 2.51439 32180 ft 450 kts 276°
2026-04-18 06:14 53.21701 2.41288 32167 ft 445 kts 276°
2026-04-18 06:14 53.22953 2.31232 32158 ft 445 kts 276°
2026-04-18 06:15 53.24204 2.21111 32162 ft 446 kts 275°
2026-04-18 06:15 53.25452 2.10950 32161 ft 447 kts 275°
2026-04-18 06:16 53.26698 2.00734 32184 ft 450 kts 276°
2026-04-18 06:16 53.27941 1.90478 32167 ft 451 kts 276°
2026-04-18 06:17 53.29177 1.80196 32162 ft 451 kts 276°
2026-04-18 06:17 53.30407 1.69891 32158 ft 451 kts 276°
2026-04-18 06:18 53.31625 1.59612 32155 ft 450 kts 276°
2026-04-18 06:18 53.32838 1.49333 32162 ft 451 kts 277°
2026-04-18 06:19 53.34277 1.39181 32160 ft 451 kts 279°
2026-04-18 06:19 53.35814 1.28993 32151 ft 450 kts 278°
2026-04-18 06:20 53.37309 1.18813 32150 ft 449 kts 278°
2026-04-18 06:20 53.38767 1.08650 32154 ft 449 kts 278°
2026-04-18 06:21 53.40201 0.98533 32167 ft 449 kts 278°
2026-04-18 06:21 53.41638 0.88341 32156 ft 449 kts 278°
2026-04-18 06:22 53.43066 0.78148 32151 ft 449 kts 278°
2026-04-18 06:22 53.44487 0.67941 32150 ft 449 kts 278°
2026-04-18 06:23 53.45898 0.57739 32142 ft 449 kts 278°
2026-04-18 06:23 53.47303 0.47515 32156 ft 449 kts 278°
2026-04-18 06:24 53.48700 0.37282 32141 ft 450 kts 278°
2026-04-18 06:24 53.50089 0.27105 32134 ft 450 kts 278°
2026-04-18 06:25 53.51482 0.16860 32133 ft 449 kts 278°
2026-04-18 06:25 53.52861 0.06616 32134 ft 449 kts 277°
2026-04-18 06:26 53.54214 -0.03637 32169 ft 449 kts 277°
2026-04-18 06:26 53.55555 -0.13891 32160 ft 449 kts 277°
2026-04-18 06:27 53.56893 -0.24153 32156 ft 449 kts 277°
2026-04-18 06:27 53.58222 -0.34424 32159 ft 449 kts 277°
2026-04-18 06:28 53.59543 -0.44677 32161 ft 448 kts 277°
2026-04-18 06:28 53.60851 -0.54891 32151 ft 449 kts 277°
2026-04-18 06:29 53.62157 -0.65158 32155 ft 448 kts 277°
2026-04-18 06:29 53.63456 -0.75455 32144 ft 448 kts 277°
2026-04-18 06:30 53.64747 -0.85751 32139 ft 448 kts 277°
2026-04-18 06:30 53.66027 -0.96039 32136 ft 448 kts 277°
2026-04-18 06:31 53.67294 -1.06271 32172 ft 448 kts 277°
2026-04-18 06:31 53.68560 -1.16572 32138 ft 448 kts 276°
2026-04-18 06:32 53.69815 -1.26860 32127 ft 447 kts 276°
2026-04-18 06:32 53.71060 -1.37136 32134 ft 446 kts 276°
2026-04-18 06:33 53.72284 -1.47404 32133 ft 446 kts 276°
2026-04-18 06:33 53.73455 -1.57676 32191 ft 446 kts 276°
2026-04-18 06:34 53.74598 -1.67994 32145 ft 447 kts 275°
2026-04-18 06:34 53.75719 -1.78348 32133 ft 448 kts 275°
2026-04-18 06:35 53.76836 -1.88728 32140 ft 449 kts 275°
2026-04-18 06:35 53.77946 -1.99103 32139 ft 449 kts 275°
2026-04-18 06:36 53.79051 -2.09497 32176 ft 449 kts 275°
2026-04-18 06:36 53.80139 -2.19841 32148 ft 450 kts 275°
2026-04-18 06:37 53.81228 -2.30276 32141 ft 450 kts 275°
2026-04-18 06:37 53.82309 -2.40717 32139 ft 450 kts 275°
2026-04-18 06:38 53.83381 -2.51180 32134 ft 450 kts 275°
2026-04-18 06:38 53.84444 -2.61638 32186 ft 450 kts 275°
2026-04-18 06:39 53.85489 -2.72022 32146 ft 450 kts 275°
2026-04-18 06:39 53.86533 -2.82490 32127 ft 449 kts 275°
2026-04-18 06:40 53.87565 -2.92923 32130 ft 448 kts 275°
2026-04-18 06:40 53.88585 -3.03338 32129 ft 447 kts 275°
2026-04-18 06:41 53.89593 -3.13740 32131 ft 447 kts 275°
2026-04-18 06:41 53.90588 -3.24098 32141 ft 447 kts 276°
2026-04-18 06:42 53.91580 -3.34516 32131 ft 447 kts 275°
2026-04-18 06:42 53.92566 -3.44953 32125 ft 447 kts 275°
2026-04-18 06:43 53.93535 -3.55372 32138 ft 447 kts 275°
2026-04-18 06:43 53.94486 -3.65812 32134 ft 448 kts 275°
2026-04-18 06:44 53.95435 -3.76300 32139 ft 451 kts 276°
2026-04-18 06:44 53.96750 -3.86765 32130 ft 457 kts 285°
2026-04-18 06:45 53.98812 -3.97015 32128 ft 459 kts 285°
2026-04-18 06:45 54.00852 -4.07228 32124 ft 460 kts 285°
2026-04-18 06:46 54.02887 -4.17573 32119 ft 460 kts 285°
2026-04-18 06:46 54.04896 -4.27890 32125 ft 459 kts 285°
2026-04-18 06:47 54.06897 -4.38222 32107 ft 458 kts 285°
2026-04-18 06:47 54.08879 -4.48517 32101 ft 457 kts 285°
2026-04-18 06:48 54.10835 -4.58727 32100 ft 456 kts 285°
2026-04-18 06:48 54.12794 -4.69007 32123 ft 455 kts 285°
2026-04-18 06:49 54.14742 -4.79289 32126 ft 455 kts 285°
2026-04-18 06:49 54.16680 -4.89573 32124 ft 456 kts 286°
2026-04-18 06:50 54.18618 -4.99910 32123 ft 458 kts 285°
2026-04-18 06:50 54.20541 -5.10224 32119 ft 459 kts 285°
2026-04-18 06:51 54.22484 -5.20705 32121 ft 460 kts 285°
2026-04-18 06:51 54.24396 -5.31074 32117 ft 460 kts 285°
2026-04-18 06:52 54.26309 -5.41511 32118 ft 460 kts 285°
2026-04-18 06:52 54.28214 -5.51958 32111 ft 459 kts 285°
2026-04-18 06:53 54.30106 -5.62394 32112 ft 458 kts 285°
2026-04-18 06:53 54.31980 -5.72794 32109 ft 456 kts 285°
2026-04-18 06:54 54.33844 -5.83191 32107 ft 456 kts 285°
2026-04-18 06:54 54.35685 -5.93525 32130 ft 456 kts 285°
2026-04-18 06:55 54.37532 -6.03953 32119 ft 457 kts 285°
2026-04-18 06:55 54.39374 -6.14411 32108 ft 459 kts 285°
2026-04-18 06:56 54.41215 -6.24920 32111 ft 460 kts 285°
2026-04-18 06:56 54.43051 -6.35463 32105 ft 461 kts 285°
2026-04-18 06:57 54.44883 -6.46047 32122 ft 461 kts 285°
2026-04-18 06:57 54.47591 -6.61812 32107 ft 460 kts 285°
2026-04-18 06:58 54.49390 -6.72363 32105 ft 459 kts 285°
2026-04-18 06:58 54.51176 -6.82897 32107 ft 458 kts 285°
2026-04-18 06:59 54.52950 -6.93427 32110 ft 457 kts 285°
2026-04-18 06:59 54.54714 -7.03960 32116 ft 457 kts 285°
2026-04-18 07:00 54.56458 -7.14435 32119 ft 458 kts 285°
2026-04-18 07:00 54.58204 -7.24987 32119 ft 458 kts 285°
2026-04-18 07:01 54.59652 -7.33790 32119 ft 459 kts 285°
2026-04-18 07:01 54.61388 -7.44405 32119 ft 460 kts 285°
2026-04-18 07:02 54.63117 -7.55033 32114 ft 460 kts 285°
2026-04-18 07:02 54.64835 -7.65666 32119 ft 460 kts 285°
2026-04-18 07:03 54.66544 -7.76314 32121 ft 460 kts 285°
2026-04-18 07:03 54.68243 -7.86958 32124 ft 459 kts 285°
2026-04-18 07:04 54.69933 -7.97620 32122 ft 459 kts 285°
2026-04-18 07:04 54.71610 -8.08264 32121 ft 459 kts 284°
2026-04-18 07:05 54.73277 -8.18918 32140 ft 458 kts 284°
2026-04-18 07:05 54.74924 -8.29503 32136 ft 459 kts 284°
2026-04-18 07:06 54.76574 -8.40182 32132 ft 459 kts 284°
2026-04-18 07:06 54.78217 -8.50882 32132 ft 460 kts 284°
2026-04-18 07:07 54.79856 -8.61628 32133 ft 460 kts 284°
2026-04-18 07:07 54.81482 -8.72360 32137 ft 460 kts 284°
2026-04-18 07:08 54.83100 -8.83112 32145 ft 460 kts 284°
2026-04-18 07:08 54.84706 -8.93852 32149 ft 460 kts 284°
2026-04-18 07:09 54.86291 -9.04531 32150 ft 459 kts 284°
2026-04-18 07:09 54.87875 -9.15268 32150 ft 459 kts 284°
2026-04-18 07:10 54.89449 -9.26012 32157 ft 459 kts 284°
2026-04-18 07:10 54.91015 -9.36770 32175 ft 458 kts 284°
2026-04-18 07:11 54.92568 -9.47515 32162 ft 458 kts 284°
2026-04-18 07:11 54.94110 -9.58261 32160 ft 458 kts 284°
2026-04-18 07:12 54.95641 -9.69002 32167 ft 457 kts 284°
2026-04-18 07:12 54.97165 -9.79764 32166 ft 458 kts 284°
2026-04-18 07:13 54.98672 -9.90468 32164 ft 457 kts 284°
2026-04-18 07:13 55.00933 -10.00799 32171 ft 456 kts 297°
2026-04-18 07:14 55.04330 -10.10131 32170 ft 457 kts 306°
2026-04-18 07:14 55.08230 -10.18905 32168 ft 457 kts 307°
2026-04-18 07:15 55.12131 -10.27677 32176 ft 457 kts 307°
2026-04-18 07:15 55.16011 -10.36509 32167 ft 458 kts 306°
2026-04-18 07:16 55.19852 -10.45330 32172 ft 458 kts 306°
2026-04-18 07:16 55.23707 -10.54228 32162 ft 458 kts 306°
2026-04-18 07:17 55.27548 -10.63125 32165 ft 457 kts 306°
2026-04-18 07:17 55.31378 -10.72028 32168 ft 457 kts 306°
2026-04-18 07:18 55.35201 -10.80945 32172 ft 456 kts 306°
2026-04-18 07:18 55.39012 -10.89866 32161 ft 456 kts 306°
2026-04-18 07:19 55.42817 -10.98806 32162 ft 456 kts 306°
2026-04-18 07:19 55.46612 -11.07754 32170 ft 456 kts 306°
2026-04-18 07:20 55.50396 -11.16711 32170 ft 456 kts 306°
2026-04-18 07:20 55.54152 -11.25633 32161 ft 455 kts 306°
2026-04-18 07:21 55.57920 -11.34615 32164 ft 454 kts 306°
2026-04-18 07:21 55.61667 -11.43581 32165 ft 453 kts 306°
2026-04-18 07:22 55.65398 -11.52541 32165 ft 452 kts 306°
2026-04-18 07:22 55.69122 -11.61517 32166 ft 451 kts 305°
2026-04-18 07:23 55.72836 -11.70501 32166 ft 451 kts 305°
2026-04-18 07:23 55.76543 -11.79503 32174 ft 452 kts 305°
2026-04-18 07:24 55.80254 -11.88546 32165 ft 452 kts 305°
2026-04-18 07:24 55.83931 -11.97540 32168 ft 453 kts 305°
2026-04-18 07:25 55.87629 -12.06620 32170 ft 453 kts 305°
2026-04-18 07:25 55.91326 -12.15728 32164 ft 453 kts 305°
2026-04-18 07:26 55.95011 -12.24844 32163 ft 453 kts 305°
2026-04-18 07:26 55.98692 -12.33983 32175 ft 453 kts 305°
2026-04-18 07:27 56.02376 -12.43163 32163 ft 454 kts 304°
2026-04-18 07:27 56.06027 -12.52296 32164 ft 454 kts 304°
2026-04-18 07:28 56.09693 -12.61500 32150 ft 454 kts 304°
2026-04-18 07:28 56.13339 -12.70690 32159 ft 451 kts 305°
2026-04-18 07:29 56.16959 -12.79847 32156 ft 448 kts 304°
2026-04-18 07:29 56.20550 -12.88965 32157 ft 447 kts 304°
2026-04-18 07:30 56.24130 -12.98088 32160 ft 446 kts 304°
2026-04-18 07:30 56.27678 -13.07166 32156 ft 446 kts 304°
2026-04-18 07:31 56.31246 -13.16328 32156 ft 447 kts 304°
2026-04-18 07:31 56.34814 -13.25525 32156 ft 448 kts 304°
2026-04-18 07:32 56.38385 -13.34765 32142 ft 448 kts 304°
2026-04-18 07:32 56.41936 -13.43989 32152 ft 447 kts 304°
2026-04-18 07:33 56.45445 -13.53136 32153 ft 444 kts 304°
2026-04-18 07:33 56.48956 -13.62323 32155 ft 443 kts 304°
2026-04-18 07:34 56.52444 -13.71487 32152 ft 441 kts 304°
2026-04-18 07:34 56.55919 -13.80650 32158 ft 441 kts 304°
2026-04-18 07:35 56.59389 -13.89834 32159 ft 441 kts 304°
2026-04-18 07:35 56.62859 -13.99051 32157 ft 443 kts 304°
2026-04-18 07:36 56.66332 -14.08315 32141 ft 444 kts 304°
2026-04-18 07:36 56.69793 -14.17581 32145 ft 441 kts 304°
2026-04-18 07:37 56.73227 -14.26808 32144 ft 438 kts 304°
2026-04-18 07:37 56.76613 -14.35943 32147 ft 436 kts 304°
2026-04-18 07:38 56.79994 -14.45098 32149 ft 435 kts 304°
2026-04-18 07:38 56.83367 -14.54268 32155 ft 435 kts 303°
2026-04-18 07:39 56.86738 -14.63464 32147 ft 436 kts 303°
2026-04-18 07:39 56.90108 -14.72696 32151 ft 437 kts 303°
2026-04-18 07:40 56.93484 -14.81979 32151 ft 438 kts 303°
2026-04-18 07:40 56.96844 -14.91248 32136 ft 432 kts 303°
2026-04-18 07:41 57.00005 -15.00500 32146 ft 427 kts 298°
2026-04-18 07:41 57.02382 -15.10430 32164 ft 429 kts 293°
2026-04-18 07:42 57.04636 -15.20611 32155 ft 431 kts 293°
2026-04-18 07:42 57.06905 -15.30827 32154 ft 432 kts 293°
2026-04-18 07:43 57.09175 -15.41059 32147 ft 432 kts 293°
2026-04-18 07:43 57.11442 -15.51326 32147 ft 433 kts 293°
2026-04-18 07:44 57.13697 -15.61582 32146 ft 431 kts 293°
2026-04-18 07:44 57.15930 -15.71797 32139 ft 428 kts 292°
2026-04-18 07:45 57.18126 -15.81889 32141 ft 426 kts 292°
2026-04-18 07:45 57.20319 -15.92017 32160 ft 425 kts 292°
2026-04-18 07:46 57.22499 -16.02130 32149 ft 425 kts 292°
2026-04-18 07:46 57.24675 -16.12278 32148 ft 425 kts 292°
2026-04-18 07:47 57.26845 -16.22448 32151 ft 426 kts 292°
2026-04-18 07:47 57.28647 -16.30932 32144 ft 426 kts 292°
2026-04-18 07:48 57.31158 -16.42813 32142 ft 426 kts 292°
2026-04-18 07:48 57.32958 -16.51375 32147 ft 426 kts 292°
2026-04-18 07:49 57.35084 -16.61532 32149 ft 426 kts 292°
2026-04-18 07:49 57.37216 -16.71769 32165 ft 426 kts 291°
2026-04-18 07:50 57.39343 -16.82033 32148 ft 426 kts 291°
2026-04-18 07:50 57.41459 -16.92300 32147 ft 426 kts 291°
2026-04-18 07:51 57.43565 -17.02567 32124 ft 425 kts 291°
2026-04-18 07:51 57.45659 -17.12825 32135 ft 425 kts 291°
2026-04-18 07:52 57.47744 -17.23100 32143 ft 425 kts 291°
2026-04-18 07:52 57.49807 -17.33313 32150 ft 425 kts 291°
2026-04-18 07:53 57.51876 -17.43611 32145 ft 425 kts 291°
2026-04-18 07:53 57.53939 -17.53932 32144 ft 425 kts 290°
2026-04-18 07:54 57.55992 -17.64255 32146 ft 425 kts 290°
2026-04-18 07:54 57.58039 -17.74601 32127 ft 425 kts 290°
2026-04-18 07:55 57.60075 -17.84949 32144 ft 425 kts 290°
2026-04-18 07:55 57.62104 -17.95314 32151 ft 425 kts 290°
2026-04-18 07:56 57.64125 -18.05697 32147 ft 425 kts 290°
2026-04-18 07:56 57.66125 -18.16021 32147 ft 425 kts 290°
2026-04-18 07:57 57.68129 -18.26424 32150 ft 426 kts 290°
2026-04-18 07:57 57.70125 -18.36844 32164 ft 426 kts 289°
2026-04-18 07:58 57.73111 -18.52534 32139 ft 426 kts 289°
2026-04-18 07:59 57.75075 -18.62924 32148 ft 426 kts 289°
2026-04-18 07:59 57.77044 -18.73398 32141 ft 426 kts 289°
2026-04-18 08:00 57.79005 -18.83884 32141 ft 426 kts 289°
2026-04-18 08:00 57.80953 -18.94362 32145 ft 426 kts 289°
2026-04-18 08:01 57.82894 -19.04859 32145 ft 426 kts 289°
2026-04-18 08:01 57.84829 -19.15381 32143 ft 426 kts 288°
2026-04-18 08:02 57.86743 -19.25846 32151 ft 427 kts 288°
2026-04-18 08:02 57.88663 -19.36405 32149 ft 427 kts 288°
2026-04-18 08:03 57.90572 -19.46964 32138 ft 427 kts 288°
2026-04-18 08:03 57.92475 -19.57546 32142 ft 427 kts 288°
2026-04-18 08:04 57.94366 -19.68121 32146 ft 427 kts 288°
2026-04-18 08:04 57.96250 -19.78724 32141 ft 427 kts 288°
2026-04-18 08:05 57.98127 -19.89335 32140 ft 427 kts 288°
2026-04-18 08:05 57.99977 -19.99891 32129 ft 426 kts 287°
2026-04-18 08:06 58.01556 -20.10670 32151 ft 427 kts 284°
2026-04-18 08:06 58.03067 -20.21508 32139 ft 428 kts 284°
2026-04-18 08:07 58.04580 -20.32397 32135 ft 429 kts 284°
2026-04-18 08:07 58.06094 -20.43293 32137 ft 429 kts 284°
2026-04-18 08:08 58.07593 -20.54133 32133 ft 429 kts 284°
2026-04-18 08:08 58.09094 -20.65051 32133 ft 429 kts 284°
2026-04-18 08:09 58.10586 -20.75990 32121 ft 429 kts 284°
2026-04-18 08:09 58.12067 -20.86917 32132 ft 429 kts 284°
2026-04-18 08:10 58.13541 -20.97876 32129 ft 429 kts 284°
2026-04-18 08:10 58.15007 -21.08860 32137 ft 430 kts 283°
2026-04-18 08:11 58.16465 -21.19855 32138 ft 431 kts 283°
2026-04-18 08:11 58.17913 -21.30863 32127 ft 431 kts 283°
2026-04-18 08:12 58.19353 -21.41888 32128 ft 431 kts 283°
2026-04-18 08:12 58.20776 -21.52858 32124 ft 431 kts 283°
2026-04-18 08:13 58.22198 -21.63907 32127 ft 431 kts 283°
2026-04-18 08:13 58.23609 -21.74962 32125 ft 431 kts 283°
2026-04-18 08:14 58.25012 -21.86032 32128 ft 431 kts 283°
2026-04-18 08:14 58.26407 -21.97114 32128 ft 431 kts 283°
2026-04-18 08:15 58.27793 -22.08219 32122 ft 432 kts 282°
2026-04-18 08:15 58.29162 -22.19270 32113 ft 432 kts 282°
2026-04-18 08:16 58.30532 -22.30421 32127 ft 432 kts 282°
2026-04-18 08:16 58.31890 -22.41557 32121 ft 432 kts 282°
2026-04-18 08:17 58.33240 -22.52717 32120 ft 432 kts 282°
2026-04-18 08:17 58.34579 -22.63876 32119 ft 432 kts 282°
2026-04-18 08:18 58.35903 -22.74992 32124 ft 432 kts 282°
2026-04-18 08:18 58.37222 -22.86163 32122 ft 432 kts 281°
2026-04-18 08:19 58.38534 -22.97358 32114 ft 432 kts 281°
2026-04-18 08:19 58.39837 -23.08577 32123 ft 433 kts 281°
2026-04-18 08:20 58.41121 -23.19724 32111 ft 433 kts 281°
2026-04-18 08:20 58.42404 -23.30952 32112 ft 433 kts 281°
2026-04-18 08:21 58.43677 -23.42179 32109 ft 433 kts 281°
2026-04-18 08:21 58.44940 -23.53419 32109 ft 432 kts 280°
2026-04-18 08:22 58.46191 -23.64648 32106 ft 432 kts 280°
2026-04-18 08:22 58.47432 -23.75888 32102 ft 432 kts 280°
2026-04-18 08:23 58.48664 -23.87134 32102 ft 432 kts 280°
2026-04-18 08:23 58.49885 -23.98386 32136 ft 432 kts 279°
2026-04-18 08:24 58.51099 -24.09669 32111 ft 432 kts 279°
2026-04-18 08:24 58.52302 -24.20949 32090 ft 432 kts 279°
2026-04-18 08:25 58.53487 -24.32157 32091 ft 432 kts 279°
2026-04-18 08:25 58.54667 -24.43424 32099 ft 432 kts 279°
2026-04-18 08:26 58.55838 -24.54697 32091 ft 432 kts 279°
2026-04-18 08:26 58.56999 -24.65993 32094 ft 431 kts 278°
2026-04-18 08:27 58.58148 -24.77266 32087 ft 431 kts 278°
2026-04-18 08:27 58.59289 -24.88566 32070 ft 432 kts 278°
2026-04-18 08:28 58.60421 -24.99875 32108 ft 432 kts 278°
2026-04-18 08:28 58.61535 -25.11125 32086 ft 432 kts 278°
2026-04-18 08:29 58.62648 -25.22461 32065 ft 432 kts 278°
2026-04-18 08:29 58.63750 -25.33788 32072 ft 431 kts 277°
2026-04-18 08:30 58.64840 -25.45115 32063 ft 431 kts 277°
2026-04-18 08:30 58.65917 -25.56415 32065 ft 430 kts 277°
2026-04-18 08:31 58.66986 -25.67739 32065 ft 430 kts 277°
2026-04-18 08:31 58.68038 -25.78989 32053 ft 430 kts 277°
2026-04-18 08:32 58.69087 -25.90324 32052 ft 431 kts 277°
2026-04-18 08:32 58.70127 -26.01676 32073 ft 431 kts 277°
2026-04-18 08:33 58.71159 -26.13057 32053 ft 431 kts 276°
2026-04-18 08:33 58.72178 -26.24419 32047 ft 430 kts 276°
2026-04-18 08:34 58.73180 -26.35698 32038 ft 429 kts 276°
2026-04-18 08:34 58.74176 -26.47032 32032 ft 429 kts 276°
2026-04-18 08:35 58.75161 -26.58363 32042 ft 429 kts 276°
2026-04-18 08:35 58.76137 -26.69706 32031 ft 429 kts 276°
2026-04-18 08:36 58.76940 -26.79135 32017 ft 429 kts 276°
2026-04-18 08:36 58.77898 -26.90493 32026 ft 429 kts 276°
2026-04-18 08:37 58.79000 -27.03716 32018 ft 429 kts 276°
2026-04-18 08:37 58.79785 -27.13244 32017 ft 430 kts 276°
2026-04-18 08:38 58.80715 -27.24640 32009 ft 430 kts 276°
2026-04-18 08:38 58.81630 -27.35987 32004 ft 430 kts 275°
2026-04-18 08:39 58.82539 -27.47398 32004 ft 430 kts 275°
2026-04-18 08:39 58.83438 -27.58804 32003 ft 430 kts 275°
2026-04-18 08:40 58.84327 -27.70218 31990 ft 430 kts 275°
2026-04-18 08:40 58.85205 -27.81630 31992 ft 430 kts 275°
2026-04-18 08:41 58.86068 -27.92979 31987 ft 430 kts 275°
2026-04-18 08:41 58.86929 -28.04441 31987 ft 430 kts 274°
2026-04-18 08:42 58.87778 -28.15882 31988 ft 430 kts 274°
2026-04-18 08:42 58.88616 -28.27321 31972 ft 429 kts 274°
2026-04-18 08:43 58.89444 -28.38760 31978 ft 429 kts 274°
2026-04-18 08:43 58.90260 -28.50180 31968 ft 429 kts 274°
2026-04-18 08:44 58.91065 -28.61603 31953 ft 429 kts 274°
2026-04-18 08:44 58.91858 -28.72994 31953 ft 429 kts 274°
2026-04-18 08:45 58.92638 -28.84355 31938 ft 429 kts 274°
2026-04-18 08:45 58.93409 -28.95729 31937 ft 429 kts 274°
2026-04-18 08:46 58.94177 -29.07204 31970 ft 430 kts 273°
2026-04-18 08:46 58.94935 -29.18702 31938 ft 430 kts 273°
2026-04-18 08:47 58.95682 -29.30181 31919 ft 429 kts 272°
2026-04-18 08:47 58.96420 -29.41673 31920 ft 429 kts 272°
2026-04-18 08:48 58.97146 -29.53153 31909 ft 428 kts 272°
2026-04-18 08:48 58.97861 -29.64629 31901 ft 428 kts 272°
2026-04-18 08:49 58.98560 -29.76020 31901 ft 428 kts 272°
2026-04-18 08:49 58.99255 -29.87489 31885 ft 428 kts 272°
2026-04-18 08:50 58.99941 -29.98975 31899 ft 428 kts 272°
2026-04-18 08:50 59.00481 -30.10482 31903 ft 428 kts 269°
2026-04-18 08:51 59.00874 -30.22010 31867 ft 428 kts 269°
2026-04-18 08:51 59.01259 -30.33461 31864 ft 427 kts 269°
2026-04-18 08:52 59.01657 -30.44968 31849 ft 427 kts 269°
2026-04-18 08:52 59.02053 -30.56484 31949 ft 430 kts 269°
2026-04-18 08:52 59.02250 -30.62281 32228 ft 430 kts 269°
2026-04-18 08:53 59.02445 -30.68066 32561 ft 429 kts 269°
2026-04-18 08:53 59.02636 -30.73831 32873 ft 428 kts 269°
2026-04-18 08:53 59.02825 -30.79599 33163 ft 428 kts 269°
2026-04-18 08:53 59.03011 -30.85365 33429 ft 428 kts 269°
2026-04-18 08:54 59.03194 -30.91123 33668 ft 428 kts 269°
2026-04-18 08:54 59.03554 -31.02750 33800 ft 432 kts 269°
2026-04-18 08:55 59.03906 -31.14379 33796 ft 429 kts 269°
2026-04-18 08:55 59.04245 -31.25935 33812 ft 429 kts 269°
2026-04-18 08:56 59.04574 -31.37539 33797 ft 431 kts 269°
2026-04-18 08:56 59.04891 -31.49104 33784 ft 432 kts 268°
2026-04-18 08:57 59.05354 -31.66637 33770 ft 432 kts 268°
2026-04-18 08:57 59.05649 -31.78307 33767 ft 432 kts 268°
2026-04-18 08:58 59.05932 -31.89940 33759 ft 431 kts 268°
2026-04-18 08:58 59.06205 -32.01579 33731 ft 431 kts 268°
2026-04-18 08:59 59.06467 -32.13209 33728 ft 430 kts 268°
2026-04-18 08:59 59.06718 -32.24798 33743 ft 429 kts 268°
2026-04-18 09:00 59.06959 -32.36392 33724 ft 429 kts 267°
2026-04-18 09:00 59.07187 -32.47921 33720 ft 429 kts 267°
2026-04-18 09:01 59.07407 -32.59530 33706 ft 429 kts 267°
2026-04-18 09:01 59.07616 -32.71159 33709 ft 431 kts 267°
2026-04-18 09:02 59.07816 -32.82807 33691 ft 431 kts 267°
2026-04-18 09:02 59.08007 -32.94483 33672 ft 431 kts 266°
2026-04-18 09:03 59.08185 -33.06050 33699 ft 430 kts 266°
2026-04-18 09:03 59.08354 -33.17694 33679 ft 430 kts 266°
2026-04-18 09:04 59.08512 -33.29357 33656 ft 430 kts 266°
2026-04-18 09:04 59.08659 -33.41003 33700 ft 431 kts 266°
2026-04-18 09:05 59.08796 -33.52678 33657 ft 432 kts 266°
2026-04-18 09:05 59.08924 -33.64359 33630 ft 432 kts 266°
2026-04-18 09:06 59.09040 -33.75980 33636 ft 432 kts 266°
2026-04-18 09:06 59.09147 -33.87689 33642 ft 432 kts 266°
2026-04-18 09:07 59.09242 -33.99381 33626 ft 432 kts 265°
2026-04-18 09:07 59.09328 -34.11070 33614 ft 432 kts 265°
2026-04-18 09:08 59.09402 -34.22760 33615 ft 432 kts 265°
2026-04-18 09:08 59.09466 -34.34425 33622 ft 431 kts 265°
2026-04-18 09:09 59.09520 -34.46117 33603 ft 432 kts 265°
2026-04-18 09:09 59.09563 -34.57755 33592 ft 433 kts 265°
2026-04-18 09:10 59.09596 -34.69449 33591 ft 433 kts 265°
2026-04-18 09:10 59.09618 -34.81164 33582 ft 432 kts 265°
2026-04-18 09:11 59.09630 -34.92869 33572 ft 432 kts 265°
2026-04-18 09:11 59.09631 -35.04558 33566 ft 432 kts 265°
2026-04-18 09:12 59.09621 -35.16255 33565 ft 432 kts 264°
2026-04-18 09:12 59.09601 -35.27969 33563 ft 433 kts 264°
2026-04-18 09:13 59.09571 -35.39601 33557 ft 433 kts 264°
2026-04-18 09:13 59.09530 -35.51322 33544 ft 434 kts 264°
2026-04-18 09:14 59.09478 -35.63058 33591 ft 435 kts 264°
2026-04-18 09:14 59.09414 -35.74886 33541 ft 439 kts 264°
2026-04-18 09:15 59.09339 -35.86805 33533 ft 442 kts 264°
2026-04-18 09:15 59.09254 -35.98830 33520 ft 444 kts 264°
2026-04-18 09:16 59.09158 -36.10830 33506 ft 444 kts 264°
2026-04-18 09:16 59.09051 -36.22841 33515 ft 443 kts 264°
2026-04-18 09:17 59.08933 -36.34814 33500 ft 443 kts 264°
2026-04-18 09:17 59.08804 -36.46718 33493 ft 442 kts 263°
2026-04-18 09:18 59.08664 -36.58668 33495 ft 441 kts 263°
2026-04-18 09:18 59.08513 -36.70578 33491 ft 440 kts 263°
2026-04-18 09:19 59.08350 -36.82522 33493 ft 443 kts 263°
2026-04-18 09:19 59.08174 -36.94529 33490 ft 445 kts 263°
2026-04-18 09:20 59.07989 -37.06505 33498 ft 447 kts 263°
2026-04-18 09:20 59.07792 -37.18602 33497 ft 448 kts 263°
2026-04-18 09:21 59.07582 -37.30740 33496 ft 449 kts 263°
2026-04-18 09:21 59.07362 -37.42871 33496 ft 449 kts 263°
2026-04-18 09:22 59.07130 -37.54993 33495 ft 448 kts 263°
2026-04-18 09:22 59.06887 -37.67083 33504 ft 447 kts 263°
2026-04-18 09:23 59.06633 -37.79166 33510 ft 448 kts 262°
2026-04-18 09:23 59.06369 -37.91173 33503 ft 447 kts 262°
2026-04-18 09:24 59.06138 -38.01290 33505 ft 447 kts 262°
2026-04-18 09:24 59.05854 -38.13269 33506 ft 446 kts 262°
2026-04-18 09:25 59.05558 -38.25317 33502 ft 446 kts 262°
2026-04-18 09:25 59.05250 -38.37366 33507 ft 446 kts 262°
2026-04-18 09:26 59.04931 -38.49412 33503 ft 446 kts 262°
2026-04-18 09:26 59.04601 -38.61470 33514 ft 446 kts 262°
2026-04-18 09:27 59.04260 -38.73514 33502 ft 446 kts 262°
2026-04-18 09:27 59.03910 -38.85471 33505 ft 446 kts 262°
2026-04-18 09:28 59.03547 -38.97496 33528 ft 447 kts 262°
2026-04-18 09:28 59.03170 -39.09585 33520 ft 449 kts 261°
2026-04-18 09:29 59.02780 -39.21738 33515 ft 451 kts 261°
2026-04-18 09:29 59.02378 -39.33926 33525 ft 453 kts 261°
2026-04-18 09:30 59.01964 -39.46122 33524 ft 454 kts 261°
2026-04-18 09:30 59.01541 -39.58284 33522 ft 454 kts 261°
2026-04-18 09:31 59.01103 -39.70511 33511 ft 453 kts 261°
2026-04-18 09:31 59.00656 -39.82706 33522 ft 453 kts 261°
2026-04-18 09:32 59.00190 -39.94875 33522 ft 451 kts 259°
2026-04-18 09:32 58.99045 -40.06726 33555 ft 443 kts 249°
2026-04-18 09:33 58.97242 -40.18186 33557 ft 445 kts 249°
2026-04-18 09:33 58.95454 -40.29675 33536 ft 446 kts 249°
2026-04-18 09:34 58.93669 -40.41188 33543 ft 447 kts 249°
2026-04-18 09:34 58.91873 -40.52730 33524 ft 447 kts 249°
2026-04-18 09:35 58.90080 -40.64177 33531 ft 447 kts 249°
2026-04-18 09:35 58.88258 -40.75729 33544 ft 448 kts 249°
2026-04-18 09:36 58.86427 -40.87257 33541 ft 448 kts 249°
2026-04-18 09:36 58.84595 -40.98710 33541 ft 448 kts 249°
2026-04-18 09:37 58.82742 -41.10227 33546 ft 448 kts 249°
2026-04-18 09:37 58.80889 -41.21664 33545 ft 447 kts 249°
2026-04-18 09:38 58.79028 -41.33071 33561 ft 447 kts 248°
2026-04-18 09:38 58.77147 -41.44531 33557 ft 448 kts 248°
2026-04-18 09:39 58.75256 -41.55976 33548 ft 448 kts 248°
2026-04-18 09:39 58.73366 -41.67346 33549 ft 448 kts 248°
2026-04-18 09:40 58.71450 -41.78794 33557 ft 449 kts 248°
2026-04-18 09:40 58.69530 -41.90194 33558 ft 450 kts 248°
2026-04-18 09:41 58.67584 -42.01675 33552 ft 450 kts 248°
2026-04-18 09:41 58.65637 -42.13091 33557 ft 451 kts 248°
2026-04-18 09:42 58.63683 -42.24479 33556 ft 451 kts 248°
2026-04-18 09:42 58.61704 -42.35938 33560 ft 451 kts 248°
2026-04-18 09:43 58.59729 -42.47302 33563 ft 451 kts 248°
2026-04-18 09:43 58.57733 -42.58717 33574 ft 450 kts 248°
2026-04-18 09:44 58.55738 -42.70053 33566 ft 451 kts 248°
2026-04-18 09:44 58.53716 -42.81472 33566 ft 451 kts 248°
2026-04-18 09:45 58.51701 -42.92784 33574 ft 451 kts 248°
2026-04-18 09:45 58.49675 -43.04092 33571 ft 451 kts 248°
2026-04-18 09:46 58.47623 -43.15472 33580 ft 451 kts 248°
2026-04-18 09:46 58.45580 -43.26732 33583 ft 451 kts 248°
2026-04-18 09:47 58.43509 -43.38078 33619 ft 452 kts 248°
2026-04-18 09:47 58.41433 -43.49386 33597 ft 453 kts 248°
2026-04-18 09:48 58.39331 -43.60769 33598 ft 454 kts 248°
2026-04-18 09:48 58.37232 -43.72069 33585 ft 455 kts 248°
2026-04-18 09:49 58.35104 -43.83452 33592 ft 455 kts 248°
2026-04-18 09:49 58.32968 -43.94813 33608 ft 456 kts 248°
2026-04-18 09:50 58.30833 -44.06105 33610 ft 456 kts 248°
2026-04-18 09:50 58.28668 -44.17486 33601 ft 456 kts 248°
2026-04-18 09:51 58.26512 -44.28754 33601 ft 456 kts 248°
2026-04-18 09:51 58.24326 -44.40109 33606 ft 456 kts 248°
2026-04-18 09:52 58.22146 -44.51367 33611 ft 456 kts 248°
2026-04-18 09:52 58.19956 -44.62615 33621 ft 456 kts 248°
2026-04-18 09:53 58.17739 -44.73936 33621 ft 457 kts 247°
2026-04-18 09:53 58.15530 -44.85152 33626 ft 457 kts 247°
2026-04-18 09:54 58.13290 -44.96458 33646 ft 457 kts 248°
2026-04-18 09:54 58.11041 -45.07747 33639 ft 459 kts 248°
2026-04-18 09:55 58.08788 -45.18991 33636 ft 460 kts 248°
2026-04-18 09:55 58.06502 -45.30335 33644 ft 461 kts 248°
2026-04-18 09:56 58.04224 -45.41581 33643 ft 461 kts 248°
2026-04-18 09:56 58.01922 -45.52873 33648 ft 461 kts 247°
2026-04-18 09:57 57.99601 -45.64199 33650 ft 461 kts 248°
2026-04-18 09:57 57.97286 -45.75432 33662 ft 461 kts 248°
2026-04-18 09:58 57.94947 -45.86720 33662 ft 461 kts 248°
2026-04-18 09:58 57.92612 -45.97927 33662 ft 461 kts 247°
2026-04-18 09:59 57.90270 -46.09104 33668 ft 461 kts 247°
2026-04-18 10:00 57.86724 -46.25905 33667 ft 461 kts 248°
2026-04-18 10:00 57.84343 -46.37116 33679 ft 461 kts 248°
2026-04-18 10:01 57.81955 -46.48297 33711 ft 461 kts 248°
2026-04-18 10:01 57.79563 -46.59431 33685 ft 462 kts 248°
2026-04-18 10:02 57.77143 -46.70640 33688 ft 463 kts 248°
2026-04-18 10:02 57.74726 -46.81774 33678 ft 463 kts 248°
2026-04-18 10:03 57.72298 -46.92897 33692 ft 463 kts 248°
2026-04-18 10:03 57.69847 -47.04067 33692 ft 463 kts 248°
2026-04-18 10:04 57.67387 -47.15217 33693 ft 463 kts 248°
2026-04-18 10:04 57.64929 -47.26299 33694 ft 463 kts 248°
2026-04-18 10:05 57.62464 -47.37356 33692 ft 463 kts 248°
2026-04-18 10:05 57.59981 -47.48431 33694 ft 462 kts 248°
2026-04-18 10:06 57.57497 -47.59456 33700 ft 462 kts 248°
2026-04-18 10:06 57.54994 -47.70507 33700 ft 461 kts 248°
2026-04-18 10:07 57.52502 -47.81454 33704 ft 461 kts 248°
2026-04-18 10:07 57.49980 -47.92470 33710 ft 461 kts 248°
2026-04-18 10:08 57.47467 -48.03396 33720 ft 461 kts 248°
2026-04-18 10:08 57.44924 -48.14393 33721 ft 462 kts 248°
2026-04-18 10:09 57.42382 -48.25329 33716 ft 462 kts 248°
2026-04-18 10:09 57.39835 -48.36231 33731 ft 462 kts 247°
2026-04-18 10:10 57.37265 -48.47178 33726 ft 462 kts 247°
2026-04-18 10:10 57.34694 -48.58069 33725 ft 462 kts 248°
2026-04-18 10:11 57.32673 -48.66591 33741 ft 462 kts 248°
2026-04-18 10:11 57.30129 -48.77277 33758 ft 461 kts 248°
2026-04-18 10:12 57.27540 -48.88095 33749 ft 461 kts 248°
2026-04-18 10:12 57.24931 -48.98944 33757 ft 461 kts 248°
2026-04-18 10:13 57.22328 -49.09714 33760 ft 461 kts 247°
2026-04-18 10:13 57.19703 -49.20518 33757 ft 461 kts 248°
2026-04-18 10:14 57.17086 -49.31242 33773 ft 460 kts 248°
2026-04-18 10:14 57.14449 -49.41990 33785 ft 460 kts 248°
2026-04-18 10:15 57.11800 -49.52737 33803 ft 461 kts 248°
2026-04-18 10:15 57.09152 -49.63430 33801 ft 461 kts 248°
2026-04-18 10:16 57.06475 -49.74183 33807 ft 462 kts 248°
2026-04-18 10:16 57.03797 -49.84898 33809 ft 463 kts 248°
2026-04-18 10:17 57.01094 -49.95662 33815 ft 464 kts 248°
2026-04-18 10:17 56.98424 -50.06378 33813 ft 464 kts 249°
2026-04-18 10:18 56.95817 -50.17218 33821 ft 464 kts 249°
2026-04-18 10:18 56.93216 -50.28041 33826 ft 463 kts 249°
2026-04-18 10:19 56.90592 -50.38860 33844 ft 464 kts 249°
2026-04-18 10:19 56.87972 -50.49577 33843 ft 464 kts 249°
2026-04-18 10:20 56.85322 -50.60354 33853 ft 464 kts 249°
2026-04-18 10:20 56.82659 -50.71132 33851 ft 465 kts 249°
2026-04-18 10:21 56.79991 -50.81877 33846 ft 464 kts 249°
2026-04-18 10:21 56.77328 -50.92549 33859 ft 464 kts 249°
2026-04-18 10:22 56.74654 -51.03218 33875 ft 464 kts 249°
2026-04-18 10:22 56.71953 -51.13940 33874 ft 464 kts 249°
2026-04-18 10:23 56.69261 -51.24576 33885 ft 464 kts 249°
2026-04-18 10:23 56.66539 -51.35278 33864 ft 464 kts 249°
2026-04-18 10:24 56.63818 -51.45924 33893 ft 464 kts 249°
2026-04-18 10:24 56.61105 -51.56489 33899 ft 464 kts 249°
2026-04-18 10:25 56.58365 -51.67109 33909 ft 464 kts 249°
2026-04-18 10:25 56.55630 -51.77662 33910 ft 464 kts 249°
2026-04-18 10:26 56.52871 -51.88256 33892 ft 464 kts 249°
2026-04-18 10:26 56.50130 -51.98727 33921 ft 463 kts 249°
2026-04-18 10:27 56.47355 -52.09284 33939 ft 463 kts 249°
2026-04-18 10:27 56.44575 -52.19807 33940 ft 463 kts 249°
2026-04-18 10:28 56.41808 -52.30237 33948 ft 463 kts 249°
2026-04-18 10:28 56.39008 -52.40740 33949 ft 463 kts 249°
2026-04-18 10:29 56.36204 -52.51206 33949 ft 462 kts 250°
2026-04-18 10:29 56.33409 -52.61595 33967 ft 462 kts 249°
2026-04-18 10:30 56.30589 -52.72031 33961 ft 463 kts 249°
2026-04-18 10:30 56.27774 -52.82398 33973 ft 463 kts 249°
2026-04-18 10:31 56.24937 -52.92799 33989 ft 463 kts 249°
2026-04-18 10:31 56.22086 -53.03202 33989 ft 463 kts 249°
2026-04-18 10:32 56.19246 -53.13515 33992 ft 462 kts 249°
2026-04-18 10:32 56.16382 -53.23876 33990 ft 462 kts 249°
2026-04-18 10:33 56.13512 -53.34207 33994 ft 462 kts 249°
2026-04-18 10:33 56.10634 -53.44525 34002 ft 462 kts 249°
2026-04-18 10:34 56.07761 -53.54774 34005 ft 462 kts 249°
2026-04-18 10:34 56.04881 -53.65004 34024 ft 462 kts 249°
2026-04-18 10:35 56.01974 -53.75286 34025 ft 462 kts 249°
2026-04-18 10:35 55.99059 -53.85550 34034 ft 462 kts 249°
2026-04-18 10:36 55.96151 -53.95746 34034 ft 463 kts 249°
2026-04-18 10:36 55.93213 -54.05996 34040 ft 462 kts 249°
2026-04-18 10:37 55.90298 -54.16125 34055 ft 462 kts 249°
2026-04-18 10:37 55.87355 -54.26309 34062 ft 462 kts 249°
2026-04-18 10:38 55.84397 -54.36497 34062 ft 462 kts 249°
2026-04-18 10:38 55.81433 -54.46662 34073 ft 462 kts 249°
2026-04-18 10:39 55.78475 -54.56763 34076 ft 461 kts 250°
2026-04-18 10:39 55.75502 -54.66869 34090 ft 461 kts 250°
2026-04-18 10:40 55.72535 -54.76914 34092 ft 461 kts 250°
2026-04-18 10:40 55.69542 -54.87003 34106 ft 461 kts 250°
2026-04-18 10:41 55.66548 -54.97056 34102 ft 460 kts 250°
2026-04-18 10:41 55.63558 -55.07046 34107 ft 459 kts 250°
2026-04-18 10:42 55.60575 -55.16971 34118 ft 459 kts 250°
2026-04-18 10:42 55.57568 -55.26939 34137 ft 458 kts 250°
2026-04-18 10:43 55.54567 -55.36848 34139 ft 459 kts 250°
2026-04-18 10:43 55.51546 -55.46776 34150 ft 459 kts 250°
2026-04-18 10:44 55.48506 -55.56722 34122 ft 458 kts 251°
2026-04-18 10:44 55.45495 -55.66533 34161 ft 457 kts 251°
2026-04-18 10:45 55.42455 -55.76408 34312 ft 460 kts 250°
2026-04-18 10:45 55.40926 -55.81357 34558 ft 459 kts 250°
2026-04-18 10:45 55.39395 -55.86299 34836 ft 458 kts 250°
2026-04-18 10:45 55.37865 -55.91224 35083 ft 458 kts 250°
2026-04-18 10:46 55.36337 -55.96138 35289 ft 458 kts 250°
2026-04-18 10:46 55.34824 -56.00992 35530 ft 457 kts 250°
2026-04-18 10:46 55.33302 -56.05855 35912 ft 451 kts 251°
2026-04-18 10:46 55.31798 -56.10649 36328 ft 446 kts 250°
2026-04-18 10:47 55.30298 -56.15434 36482 ft 448 kts 250°
2026-04-18 10:47 55.27272 -56.25091 36594 ft 454 kts 250°
2026-04-18 10:47 55.25742 -56.29947 36746 ft 456 kts 250°
2026-04-18 10:48 55.24200 -56.34827 36865 ft 457 kts 250°
2026-04-18 10:48 55.22658 -56.39695 36975 ft 458 kts 250°
2026-04-18 10:48 55.21107 -56.44580 37110 ft 459 kts 250°
2026-04-18 10:49 55.17989 -56.54375 37244 ft 461 kts 250°
2026-04-18 10:49 55.16426 -56.59265 37431 ft 460 kts 250°
2026-04-18 10:49 55.14859 -56.64161 37541 ft 461 kts 250°
2026-04-18 10:50 55.11732 -56.73911 37656 ft 464 kts 249°
2026-04-18 10:50 55.08558 -56.83767 37814 ft 466 kts 249°
2026-04-18 10:51 55.05365 -56.93640 37960 ft 468 kts 249°
2026-04-18 10:51 55.02674 -57.03824 38020 ft 458 kts 258°
2026-04-18 10:51 55.01742 -57.09076 38149 ft 451 kts 262°
2026-04-18 10:52 55.00898 -57.14349 38198 ft 452 kts 262°
2026-04-18 10:52 54.99186 -57.24898 38242 ft 452 kts 262°
2026-04-18 10:53 54.97449 -57.35424 38258 ft 452 kts 262°
2026-04-18 10:53 54.95705 -57.45873 38262 ft 453 kts 262°
2026-04-18 10:54 54.93936 -57.56397 38261 ft 453 kts 262°
2026-04-18 10:54 54.92161 -57.66899 38228 ft 453 kts 262°
2026-04-18 10:55 54.90375 -57.77393 38257 ft 452 kts 262°
2026-04-18 10:55 54.88588 -57.87846 38278 ft 451 kts 262°
2026-04-18 10:56 54.86790 -57.98293 38264 ft 451 kts 262°
2026-04-18 10:56 54.84990 -58.08697 38275 ft 450 kts 262°
2026-04-18 10:57 54.83183 -58.19077 38284 ft 449 kts 262°
2026-04-18 10:57 54.81675 -58.27699 38284 ft 449 kts 262°
2026-04-18 10:57 54.80766 -58.32875 38166 ft 449 kts 262°
2026-04-18 10:58 54.79560 -58.39712 38241 ft 446 kts 262°
2026-04-18 10:58 54.78039 -58.48296 38273 ft 444 kts 261°
2026-04-18 10:59 54.76223 -58.58508 38280 ft 443 kts 261°
2026-04-18 10:59 54.74399 -58.68713 38288 ft 443 kts 261°
2026-04-18 11:00 54.72570 -58.78888 38270 ft 443 kts 261°
2026-04-18 11:00 54.70738 -58.89010 38290 ft 442 kts 261°
2026-04-18 11:01 54.68893 -58.99149 38293 ft 442 kts 261°
2026-04-18 11:01 54.67041 -59.09282 38288 ft 442 kts 261°
2026-04-18 11:02 54.64241 -59.24485 38296 ft 442 kts 261°
2026-04-18 11:02 54.62365 -59.34605 38296 ft 443 kts 261°
2026-04-18 11:03 54.60489 -59.44672 38291 ft 443 kts 261°
2026-04-18 11:03 54.58592 -59.54795 38294 ft 443 kts 261°
2026-04-18 11:04 54.56686 -59.64906 38261 ft 442 kts 260°
2026-04-18 11:04 54.54783 -59.74958 38294 ft 441 kts 260°
2026-04-18 11:05 54.52876 -59.84984 38308 ft 440 kts 260°
2026-04-18 11:05 54.50963 -59.94987 38318 ft 440 kts 260°
2026-04-18 11:06 54.49415 -60.05075 38302 ft 431 kts 268°
2026-04-18 11:06 54.48393 -60.15164 38308 ft 431 kts 267°
2026-04-18 11:07 54.47328 -60.25310 38317 ft 430 kts 267°
2026-04-18 11:07 54.46249 -60.35415 38292 ft 428 kts 267°
2026-04-18 11:08 54.45165 -60.45476 38313 ft 428 kts 266°
2026-04-18 11:08 54.44075 -60.55522 38333 ft 427 kts 266°
2026-04-18 11:09 54.42984 -60.65493 38329 ft 426 kts 266°
2026-04-18 11:09 54.41879 -60.75505 38336 ft 426 kts 266°
2026-04-18 11:10 54.40768 -60.85496 38339 ft 426 kts 266°
2026-04-18 11:10 54.39649 -60.95489 38339 ft 426 kts 266°
2026-04-18 11:11 54.38521 -61.05462 38285 ft 425 kts 266°
2026-04-18 11:11 54.37390 -61.15399 38331 ft 425 kts 266°
2026-04-18 11:12 54.36250 -61.25345 38329 ft 425 kts 266°
2026-04-18 11:12 54.35101 -61.35282 38351 ft 425 kts 266°
2026-04-18 11:13 54.33944 -61.45219 38357 ft 425 kts 266°
2026-04-18 11:13 54.32774 -61.55182 38354 ft 427 kts 265°
2026-04-18 11:14 54.31603 -61.65085 38368 ft 428 kts 265°
2026-04-18 11:14 54.30413 -61.75074 38369 ft 428 kts 265°
2026-04-18 11:15 54.29210 -61.85085 38317 ft 428 kts 265°
2026-04-18 11:15 54.28002 -61.95067 38364 ft 428 kts 265°
2026-04-18 11:16 54.26786 -62.05042 38367 ft 428 kts 265°
2026-04-18 11:16 54.25562 -62.15013 38371 ft 428 kts 265°
2026-04-18 11:17 54.24330 -62.24978 38381 ft 428 kts 265°
2026-04-18 11:17 54.23088 -62.34952 38383 ft 428 kts 265°
2026-04-18 11:18 54.21838 -62.44911 38390 ft 429 kts 265°
2026-04-18 11:18 54.20586 -62.54813 38392 ft 429 kts 265°
2026-04-18 11:19 54.19322 -62.64746 38392 ft 428 kts 265°
2026-04-18 11:19 54.18049 -62.74685 38399 ft 428 kts 265°
2026-04-18 11:20 54.16767 -62.84618 38398 ft 429 kts 265°
2026-04-18 11:20 54.15475 -62.94560 38394 ft 429 kts 265°
2026-04-18 11:21 54.14172 -63.04515 38394 ft 430 kts 264°
2026-04-18 11:21 54.12861 -63.14469 38371 ft 430 kts 264°
2026-04-18 11:22 54.11542 -63.24403 38389 ft 430 kts 264°
2026-04-18 11:22 54.10224 -63.34273 38341 ft 430 kts 264°
2026-04-18 11:23 54.08887 -63.44207 38380 ft 430 kts 264°
2026-04-18 11:23 54.07543 -63.54139 38394 ft 431 kts 264°
2026-04-18 11:24 54.06187 -63.64086 38391 ft 432 kts 264°
2026-04-18 11:24 54.04820 -63.74045 38391 ft 432 kts 264°
2026-04-18 11:25 54.03452 -63.83953 38384 ft 433 kts 264°
2026-04-18 11:25 54.02066 -63.93911 38392 ft 433 kts 264°
2026-04-18 11:26 54.00673 -64.03862 38386 ft 432 kts 263°
2026-04-18 11:26 53.99271 -64.13803 38383 ft 431 kts 263°
2026-04-18 11:27 53.97866 -64.23713 38381 ft 431 kts 263°
2026-04-18 11:27 53.96463 -64.33544 38398 ft 431 kts 263°
2026-04-18 11:28 53.95043 -64.43431 38369 ft 431 kts 263°
2026-04-18 11:28 53.93613 -64.53323 38367 ft 431 kts 263°
2026-04-18 11:29 53.92174 -64.63206 38378 ft 431 kts 263°
2026-04-18 11:29 53.90730 -64.73068 38369 ft 431 kts 263°
2026-04-18 11:30 53.89278 -64.82924 38329 ft 431 kts 263°
2026-04-18 11:30 53.87819 -64.92768 38355 ft 431 kts 263°
2026-04-18 11:31 53.86352 -65.02600 38358 ft 431 kts 262°
2026-04-18 11:31 53.84882 -65.12392 38355 ft 431 kts 262°
2026-04-18 11:32 53.83404 -65.22183 38343 ft 431 kts 262°
2026-04-18 11:32 53.81937 -65.31838 38352 ft 431 kts 262°
2026-04-18 11:33 53.80435 -65.41660 38352 ft 431 kts 262°
2026-04-18 11:33 53.78925 -65.51478 38355 ft 431 kts 262°
2026-04-18 11:34 53.77405 -65.61300 38336 ft 431 kts 262°
2026-04-18 11:34 53.75893 -65.71018 38347 ft 430 kts 262°
2026-04-18 11:35 53.74359 -65.80817 38347 ft 430 kts 261°
2026-04-18 11:35 53.72820 -65.90588 38341 ft 430 kts 261°
2026-04-18 11:36 53.71273 -66.00353 38339 ft 430 kts 261°
2026-04-18 11:36 53.69729 -66.10043 38339 ft 429 kts 261°
2026-04-18 11:37 53.68170 -66.19767 38326 ft 429 kts 261°
2026-04-18 11:37 53.66603 -66.29490 38316 ft 429 kts 261°
2026-04-18 11:38 53.65028 -66.39201 38317 ft 429 kts 261°
2026-04-18 11:38 53.63448 -66.48890 38312 ft 429 kts 261°
2026-04-18 11:39 53.61860 -66.58572 38298 ft 428 kts 261°
2026-04-18 11:39 53.60267 -66.68234 38296 ft 428 kts 261°
2026-04-18 11:40 53.58668 -66.77874 38278 ft 428 kts 261°
2026-04-18 11:40 53.57073 -66.87436 38273 ft 427 kts 261°
2026-04-18 11:41 53.55458 -66.97066 38268 ft 427 kts 260°
2026-04-18 11:41 53.53839 -67.06668 38251 ft 426 kts 260°
2026-04-18 11:42 53.52215 -67.16242 38257 ft 426 kts 260°
2026-04-18 11:42 53.50583 -67.25815 38255 ft 426 kts 260°
2026-04-18 11:43 53.48945 -67.35373 38250 ft 425 kts 260°
2026-04-18 11:43 53.47296 -67.44941 38241 ft 425 kts 260°
2026-04-18 11:44 53.45642 -67.54482 38237 ft 425 kts 260°
2026-04-18 11:44 53.44262 -67.62410 38223 ft 425 kts 260°
2026-04-18 11:45 53.42325 -67.73475 38182 ft 426 kts 259°
2026-04-18 11:45 53.40650 -67.82986 38220 ft 425 kts 259°
2026-04-18 11:46 53.39252 -67.90887 38221 ft 425 kts 259°
2026-04-18 11:46 53.37563 -68.00383 38210 ft 425 kts 259°
2026-04-18 11:47 53.35871 -68.09854 38216 ft 425 kts 259°
2026-04-18 11:47 53.34170 -68.19316 38213 ft 424 kts 259°
2026-04-18 11:48 53.32465 -68.28760 38204 ft 424 kts 259°
2026-04-18 11:48 53.30754 -68.38190 38199 ft 424 kts 259°
2026-04-18 11:49 53.29033 -68.47622 38169 ft 423 kts 259°
2026-04-18 11:49 53.27312 -68.57002 38188 ft 422 kts 259°
2026-04-18 11:50 53.25587 -68.66357 38193 ft 421 kts 259°
2026-04-18 11:50 53.23857 -68.75700 38188 ft 421 kts 259°
2026-04-18 11:51 53.22120 -68.85027 38182 ft 420 kts 259°
2026-04-18 11:51 53.20389 -68.94277 38193 ft 420 kts 259°
2026-04-18 11:52 53.18643 -69.03563 38185 ft 419 kts 259°
2026-04-18 11:52 53.16892 -69.12834 38189 ft 419 kts 259°
2026-04-18 11:53 53.15135 -69.22076 38173 ft 416 kts 259°
2026-04-18 11:53 53.13387 -69.31235 38175 ft 413 kts 259°
2026-04-18 11:54 53.11660 -69.40238 38152 ft 409 kts 259°
2026-04-18 11:54 53.09928 -69.49231 38151 ft 406 kts 259°
2026-04-18 11:55 53.08202 -69.58152 38159 ft 405 kts 259°
2026-04-18 11:55 53.06470 -69.67067 38143 ft 404 kts 259°
2026-04-18 11:56 53.04734 -69.75961 38150 ft 404 kts 259°
2026-04-18 11:56 53.02987 -69.84861 38154 ft 404 kts 259°
2026-04-18 11:57 53.01258 -69.93639 38116 ft 401 kts 259°
2026-04-18 11:57 52.99609 -70.02443 38127 ft 395 kts 263°
2026-04-18 11:58 52.98284 -70.11259 38127 ft 392 kts 263°
2026-04-18 11:58 52.96963 -70.20017 38103 ft 390 kts 263°
2026-04-18 11:59 52.95640 -70.28722 38098 ft 389 kts 263°
2026-04-18 11:59 52.94319 -70.37343 38112 ft 387 kts 263°
2026-04-18 12:00 52.92979 -70.46044 38090 ft 387 kts 263°
2026-04-18 12:00 52.91650 -70.54629 38083 ft 386 kts 263°
2026-04-18 12:01 52.89642 -70.67501 38066 ft 383 kts 263°
2026-04-18 12:02 52.88301 -70.76044 38056 ft 382 kts 263°
2026-04-18 12:02 52.86959 -70.84551 38050 ft 381 kts 263°
2026-04-18 12:03 52.85613 -70.93042 38038 ft 381 kts 263°
2026-04-18 12:03 52.84264 -71.01514 38045 ft 381 kts 263°
2026-04-18 12:04 52.82908 -71.09978 38035 ft 381 kts 263°
2026-04-18 12:04 52.81546 -71.18435 38013 ft 380 kts 263°
2026-04-18 12:05 52.80181 -71.26873 38017 ft 380 kts 263°
2026-04-18 12:05 52.78808 -71.35313 38015 ft 380 kts 262°
2026-04-18 12:06 52.77438 -71.43695 37974 ft 380 kts 262°
2026-04-18 12:06 52.76057 -71.52102 37996 ft 380 kts 262°
2026-04-18 12:07 52.74667 -71.60527 37994 ft 381 kts 262°
2026-04-18 12:07 52.73270 -71.68951 37989 ft 381 kts 261°
2026-04-18 12:08 52.71858 -71.77419 37973 ft 382 kts 261°
2026-04-18 12:08 52.70443 -71.85870 37963 ft 382 kts 261°
2026-04-18 12:09 52.69021 -71.94314 37966 ft 382 kts 261°
2026-04-18 12:09 52.67591 -72.02766 37965 ft 383 kts 261°
2026-04-18 12:10 52.66165 -72.11156 37947 ft 383 kts 261°
2026-04-18 12:10 52.64724 -72.19593 37918 ft 383 kts 261°
2026-04-18 12:11 52.63278 -72.28021 37945 ft 383 kts 260°
2026-04-18 12:11 52.61824 -72.36447 37933 ft 383 kts 260°
2026-04-18 12:12 52.60365 -72.44863 37930 ft 383 kts 260°
2026-04-18 12:12 52.58900 -72.53280 37930 ft 383 kts 260°
2026-04-18 12:13 52.57429 -72.61687 37919 ft 382 kts 260°
2026-04-18 12:13 52.55953 -72.70087 37911 ft 382 kts 259°
2026-04-18 12:14 52.54477 -72.78447 37912 ft 383 kts 259°
2026-04-18 12:14 52.52991 -72.86828 37902 ft 383 kts 259°
2026-04-18 12:15 52.51493 -72.95231 37894 ft 383 kts 259°
2026-04-18 12:15 52.49990 -73.03622 37898 ft 382 kts 259°
2026-04-18 12:16 52.48484 -73.11996 37887 ft 383 kts 259°
2026-04-18 12:16 52.46977 -73.20340 37875 ft 384 kts 259°
2026-04-18 12:17 52.45452 -73.28744 37852 ft 384 kts 259°
2026-04-18 12:17 52.43919 -73.37146 37851 ft 385 kts 258°
2026-04-18 12:18 52.42381 -73.45547 37862 ft 385 kts 258°
2026-04-18 12:18 52.40831 -73.53960 37848 ft 385 kts 258°
2026-04-18 12:19 52.39291 -73.62286 37851 ft 385 kts 258°
2026-04-18 12:19 52.37737 -73.70659 37840 ft 384 kts 258°
2026-04-18 12:20 52.36175 -73.79028 37835 ft 384 kts 258°
2026-04-18 12:20 52.34612 -73.87372 37833 ft 383 kts 257°
2026-04-18 12:21 52.33044 -73.95700 37836 ft 383 kts 257°
2026-04-18 12:21 52.31473 -74.04012 37826 ft 382 kts 257°
2026-04-18 12:22 52.29898 -74.12300 37822 ft 381 kts 257°
2026-04-18 12:22 52.28321 -74.20569 37802 ft 381 kts 257°
2026-04-18 12:23 52.26752 -74.28761 37804 ft 380 kts 257°
2026-04-18 12:23 52.25168 -74.36992 37803 ft 379 kts 257°
2026-04-18 12:24 52.23583 -74.45194 37786 ft 379 kts 257°
2026-04-18 12:24 52.21992 -74.53395 37783 ft 378 kts 256°
2026-04-18 12:25 52.20391 -74.61614 37803 ft 379 kts 256°
2026-04-18 12:25 52.18795 -74.69771 37770 ft 381 kts 256°
2026-04-18 12:26 52.17179 -74.77994 37768 ft 382 kts 256°
2026-04-18 12:26 52.15548 -74.86254 37772 ft 383 kts 256°
2026-04-18 12:27 52.13910 -74.94516 37785 ft 384 kts 256°
2026-04-18 12:27 52.12262 -75.02791 37782 ft 384 kts 256°
2026-04-18 12:28 52.10605 -75.11079 37771 ft 385 kts 256°
2026-04-18 12:28 52.08955 -75.19297 37754 ft 384 kts 255°
2026-04-18 12:29 52.07293 -75.27535 37745 ft 382 kts 255°
2026-04-18 12:29 52.05631 -75.35745 37725 ft 381 kts 255°
2026-04-18 12:30 52.03972 -75.43901 37724 ft 380 kts 255°
2026-04-18 12:30 52.02312 -75.52037 37728 ft 379 kts 255°
2026-04-18 12:31 52.00649 -75.60149 37722 ft 378 kts 255°
2026-04-18 12:31 51.98981 -75.68252 37763 ft 378 kts 255°
2026-04-18 12:32 51.97320 -75.76289 37723 ft 378 kts 255°
2026-04-18 12:32 51.95647 -75.84350 37697 ft 377 kts 254°
2026-04-18 12:33 51.93969 -75.92402 37696 ft 376 kts 254°
2026-04-18 12:33 51.92292 -76.00420 37675 ft 375 kts 254°
2026-04-18 12:34 51.90896 -76.07067 37667 ft 375 kts 254°
2026-04-18 12:34 51.89210 -76.15072 37673 ft 375 kts 254°
2026-04-18 12:35 51.87519 -76.23065 37678 ft 375 kts 254°
2026-04-18 12:35 51.85823 -76.31056 37662 ft 375 kts 253°
2026-04-18 12:36 51.84119 -76.39043 37656 ft 375 kts 253°
2026-04-18 12:36 51.82426 -76.46951 37638 ft 374 kts 253°
2026-04-18 12:37 51.80723 -76.54876 37643 ft 373 kts 253°
2026-04-18 12:37 51.79015 -76.62790 37642 ft 372 kts 253°
2026-04-18 12:38 51.77306 -76.70683 37623 ft 372 kts 253°
2026-04-18 12:38 51.75593 -76.78566 37625 ft 371 kts 252°
2026-04-18 12:39 51.73876 -76.86431 37632 ft 371 kts 252°
2026-04-18 12:39 51.72167 -76.94235 37611 ft 371 kts 252°
2026-04-18 12:40 51.70444 -77.02070 37612 ft 370 kts 252°
2026-04-18 12:40 51.68714 -77.09906 37612 ft 370 kts 252°
2026-04-18 12:41 51.66982 -77.17726 37595 ft 370 kts 252°
2026-04-18 12:41 51.65248 -77.25519 37597 ft 370 kts 252°
2026-04-18 12:42 51.63519 -77.33269 37598 ft 370 kts 252°
2026-04-18 12:42 51.61774 -77.41060 37582 ft 370 kts 251°
2026-04-18 12:43 51.60025 -77.48835 37577 ft 369 kts 251°
2026-04-18 12:43 51.58274 -77.56591 37576 ft 369 kts 251°
2026-04-18 12:44 51.56516 -77.64350 37565 ft 369 kts 251°
2026-04-18 12:44 51.54764 -77.72055 37565 ft 369 kts 251°
2026-04-18 12:45 51.52992 -77.79820 37547 ft 370 kts 251°
2026-04-18 12:45 51.51214 -77.87583 37555 ft 370 kts 251°
2026-04-18 12:46 51.49428 -77.95352 37553 ft 371 kts 250°
2026-04-18 12:46 51.47639 -78.03105 37533 ft 370 kts 250°
2026-04-18 12:47 51.45859 -78.10791 37531 ft 368 kts 250°
2026-04-18 12:47 51.44072 -78.18480 37519 ft 367 kts 250°
2026-04-18 12:48 51.42287 -78.26130 37509 ft 366 kts 250°
2026-04-18 12:48 51.40502 -78.33758 37523 ft 366 kts 250°
2026-04-18 12:49 51.38708 -78.41393 37524 ft 366 kts 250°
2026-04-18 12:49 51.36920 -78.48981 37506 ft 367 kts 249°
2026-04-18 12:50 51.35113 -78.56618 37504 ft 367 kts 249°
2026-04-18 12:50 51.33298 -78.64261 37503 ft 367 kts 249°
2026-04-18 12:51 51.31483 -78.71882 37499 ft 367 kts 249°
2026-04-18 12:51 51.29660 -78.79505 37486 ft 367 kts 249°
2026-04-18 12:52 51.27833 -78.87122 37459 ft 367 kts 249°
2026-04-18 12:52 51.25996 -78.94750 37463 ft 368 kts 249°
2026-04-18 12:53 51.24181 -79.02267 37483 ft 369 kts 248°
2026-04-18 12:53 51.22307 -79.09993 37458 ft 368 kts 248°
2026-04-18 12:54 51.20459 -79.17587 37461 ft 366 kts 248°
2026-04-18 12:54 51.18614 -79.25145 37462 ft 365 kts 248°
2026-04-18 12:55 51.16782 -79.32632 37449 ft 364 kts 247°
2026-04-18 12:55 51.14934 -79.40145 37446 ft 364 kts 247°
2026-04-18 12:56 51.13083 -79.47650 37450 ft 364 kts 247°
2026-04-18 12:56 51.11226 -79.55155 37446 ft 364 kts 246°
2026-04-18 12:57 51.09365 -79.62649 37434 ft 364 kts 246°
2026-04-18 12:57 51.07497 -79.70144 37439 ft 365 kts 246°
2026-04-18 12:58 51.05622 -79.77646 37428 ft 365 kts 246°
2026-04-18 12:58 51.03738 -79.85160 37431 ft 366 kts 246°
2026-04-18 12:59 51.01851 -79.92668 37428 ft 366 kts 246°
2026-04-18 12:59 50.99989 -80.00143 37416 ft 367 kts 248°
2026-04-18 13:00 50.98436 -80.07874 37425 ft 368 kts 249°
2026-04-18 13:00 50.96913 -80.15636 37411 ft 368 kts 249°
2026-04-18 13:01 50.95383 -80.23393 37407 ft 368 kts 249°
2026-04-18 13:01 50.93847 -80.31138 37405 ft 368 kts 249°
2026-04-18 13:02 50.92303 -80.38882 37404 ft 368 kts 250°
2026-04-18 13:02 50.90753 -80.46628 37411 ft 369 kts 249°
2026-04-18 13:03 50.89194 -80.54385 37415 ft 370 kts 249°
2026-04-18 13:03 50.86843 -80.66026 37410 ft 373 kts 248°
2026-04-18 13:04 50.85253 -80.73857 37407 ft 374 kts 248°
2026-04-18 13:04 50.83652 -80.81712 37425 ft 375 kts 248°
2026-04-18 13:05 50.82045 -80.89570 37422 ft 376 kts 248°
2026-04-18 13:05 50.80438 -80.97399 37415 ft 376 kts 248°
2026-04-18 13:06 50.78808 -81.05304 37413 ft 375 kts 248°
2026-04-18 13:06 50.77196 -81.13095 37420 ft 376 kts 246°
2026-04-18 13:07 50.75565 -81.20939 37400 ft 375 kts 246°
2026-04-18 13:07 50.73931 -81.28768 37400 ft 375 kts 246°
2026-04-18 13:08 50.72294 -81.36585 37404 ft 375 kts 246°
2026-04-18 13:08 50.70656 -81.44378 37392 ft 375 kts 246°
2026-04-18 13:09 50.69010 -81.52175 37391 ft 375 kts 246°
2026-04-18 13:09 50.67358 -81.59974 37425 ft 375 kts 245°
2026-04-18 13:10 50.65697 -81.67779 37385 ft 375 kts 245°
2026-04-18 13:10 50.64040 -81.75538 37384 ft 374 kts 245°
2026-04-18 13:11 50.62374 -81.83313 37381 ft 374 kts 245°
2026-04-18 13:11 50.60714 -81.91027 37384 ft 373 kts 245°
2026-04-18 13:12 50.59043 -81.98762 37388 ft 373 kts 245°
2026-04-18 13:12 50.57370 -82.06482 37386 ft 373 kts 245°
2026-04-18 13:13 50.55689 -82.14204 37393 ft 374 kts 245°
2026-04-18 13:13 50.54002 -82.21929 37388 ft 373 kts 245°
2026-04-18 13:14 50.52312 -82.29637 37391 ft 372 kts 244°
2026-04-18 13:14 50.50631 -82.37278 37390 ft 372 kts 244°
2026-04-18 13:15 50.48927 -82.44992 37398 ft 371 kts 244°
2026-04-18 13:15 50.47241 -82.52598 37399 ft 371 kts 244°
2026-04-18 13:16 50.45540 -82.60241 37481 ft 372 kts 244°
2026-04-18 13:16 50.45292 -82.61353 37447 ft 373 kts 244°
2026-04-18 13:17 50.44855 -82.63308 37427 ft 373 kts 244°
2026-04-18 13:17 50.43131 -82.71014 37422 ft 375 kts 244°
2026-04-18 13:18 50.41396 -82.78741 37421 ft 376 kts 244°
2026-04-18 13:18 50.39654 -82.86476 37439 ft 377 kts 244°
2026-04-18 13:19 50.37903 -82.94221 37443 ft 377 kts 244°
2026-04-18 13:19 50.36442 -83.00660 37438 ft 377 kts 244°
2026-04-18 13:20 50.35561 -83.04533 37441 ft 377 kts 244°
2026-04-18 13:20 50.34280 -83.10153 37467 ft 379 kts 244°
2026-04-18 13:21 50.32501 -83.17932 37450 ft 380 kts 244°
2026-04-18 13:21 50.30713 -83.25721 37475 ft 381 kts 244°
2026-04-18 13:22 50.28914 -83.33530 37453 ft 382 kts 244°
2026-04-18 13:22 50.27118 -83.41300 37460 ft 382 kts 244°
2026-04-18 13:23 50.25305 -83.49116 37462 ft 383 kts 244°
2026-04-18 13:23 50.23483 -83.56939 37509 ft 383 kts 244°
2026-04-18 13:24 50.21651 -83.64773 37475 ft 385 kts 244°
2026-04-18 13:24 50.19807 -83.72633 37472 ft 386 kts 244°
2026-04-18 13:25 50.17948 -83.80525 37476 ft 388 kts 244°
2026-04-18 13:25 50.16092 -83.88381 37481 ft 389 kts 244°
2026-04-18 13:26 50.14213 -83.96303 37487 ft 390 kts 244°
2026-04-18 13:26 50.12326 -84.04231 37482 ft 390 kts 244°
2026-04-18 13:27 50.10423 -84.12193 37497 ft 393 kts 244°
2026-04-18 13:27 50.08501 -84.20207 37499 ft 396 kts 244°
2026-04-18 13:28 50.06563 -84.28262 37499 ft 398 kts 244°
2026-04-18 13:28 50.04609 -84.36350 37497 ft 399 kts 244°
2026-04-18 13:29 50.02648 -84.44440 37506 ft 400 kts 244°
2026-04-18 13:29 50.00692 -84.52482 37509 ft 399 kts 244°
2026-04-18 13:30 49.98713 -84.60582 37526 ft 402 kts 244°
2026-04-18 13:30 49.96717 -84.68724 37520 ft 404 kts 244°
2026-04-18 13:31 49.94709 -84.76885 37534 ft 405 kts 244°
2026-04-18 13:31 49.92686 -84.85076 37537 ft 407 kts 244°
2026-04-18 13:32 49.90651 -84.93288 37541 ft 408 kts 244°
2026-04-18 13:32 49.88606 -85.01508 37540 ft 408 kts 244°
2026-04-18 13:33 49.86570 -85.09664 37514 ft 408 kts 244°
2026-04-18 13:33 49.84520 -85.17848 37552 ft 406 kts 244°
2026-04-18 13:34 49.82468 -85.26008 37554 ft 405 kts 244°
2026-04-18 13:34 49.80419 -85.34124 37549 ft 404 kts 244°
2026-04-18 13:35 49.78370 -85.42211 37558 ft 403 kts 244°
2026-04-18 13:35 49.76332 -85.50225 37625 ft 403 kts 244°
2026-04-18 13:36 49.74265 -85.58320 37576 ft 405 kts 244°
2026-04-18 13:36 49.72189 -85.66426 37573 ft 405 kts 244°
2026-04-18 13:37 49.70105 -85.74535 37566 ft 405 kts 244°
2026-04-18 13:37 49.68019 -85.82624 37567 ft 405 kts 244°
2026-04-18 13:38 49.65942 -85.90652 37577 ft 404 kts 244°
2026-04-18 13:38 49.63852 -85.98698 37589 ft 405 kts 244°
2026-04-18 13:39 49.61750 -86.06758 37595 ft 405 kts 244°
2026-04-18 13:39 49.59643 -86.14812 37596 ft 406 kts 244°
2026-04-18 13:40 49.57524 -86.22884 37592 ft 406 kts 244°
2026-04-18 13:40 49.55393 -86.30976 37606 ft 407 kts 244°
2026-04-18 13:41 49.53267 -86.39018 37595 ft 408 kts 244°
2026-04-18 13:41 49.51457 -86.45842 37617 ft 409 kts 244°
2026-04-18 13:42 49.49296 -86.53960 37606 ft 410 kts 244°
2026-04-18 13:42 49.47126 -86.62089 37581 ft 411 kts 244°
2026-04-18 13:43 49.44950 -86.70211 37602 ft 410 kts 243°
2026-04-18 13:43 49.42772 -86.78312 37606 ft 410 kts 243°
2026-04-18 13:44 49.40593 -86.86389 37611 ft 409 kts 243°
2026-04-18 13:44 49.38418 -86.94421 37619 ft 411 kts 243°
2026-04-18 13:45 49.36214 -87.02527 37627 ft 412 kts 243°
2026-04-18 13:45 49.33994 -87.10669 37629 ft 414 kts 243°
2026-04-18 13:46 49.31761 -87.18831 37632 ft 416 kts 243°
2026-04-18 13:46 49.29514 -87.27016 37631 ft 417 kts 243°
2026-04-18 13:47 49.27255 -87.35215 37664 ft 418 kts 243°
2026-04-18 13:47 49.24995 -87.43388 37653 ft 420 kts 243°
2026-04-18 13:48 49.22708 -87.51633 37637 ft 421 kts 243°
2026-04-18 13:48 49.20411 -87.59886 37645 ft 421 kts 243°
2026-04-18 13:49 49.18109 -87.68127 37645 ft 421 kts 243°
2026-04-18 13:49 49.15800 -87.76365 37643 ft 421 kts 243°
2026-04-18 13:50 49.13497 -87.84550 37655 ft 422 kts 244°
2026-04-18 13:50 49.11171 -87.92788 37660 ft 422 kts 243°
2026-04-18 13:51 49.08841 -88.01016 37662 ft 422 kts 243°
2026-04-18 13:51 49.06505 -88.09236 37660 ft 422 kts 243°
2026-04-18 13:52 49.04168 -88.17432 37663 ft 421 kts 243°
2026-04-18 13:52 49.01833 -88.25591 37719 ft 420 kts 243°
2026-04-18 13:53 48.99489 -88.33749 37688 ft 420 kts 243°
2026-04-18 13:53 48.97141 -88.41898 37673 ft 420 kts 243°
2026-04-18 13:54 48.94803 -88.49987 37685 ft 419 kts 243°
2026-04-18 13:54 48.92445 -88.58113 37682 ft 419 kts 243°
2026-04-18 13:55 48.90083 -88.66230 37694 ft 419 kts 243°
2026-04-18 13:55 48.87712 -88.74348 37690 ft 421 kts 243°
2026-04-18 13:56 48.85329 -88.82479 37712 ft 422 kts 243°
2026-04-18 13:56 48.82935 -88.90623 37707 ft 423 kts 243°
2026-04-18 13:57 48.80530 -88.98777 37719 ft 424 kts 243°
2026-04-18 13:57 48.78112 -89.06945 37716 ft 425 kts 243°
2026-04-18 13:58 48.75686 -89.15115 37754 ft 425 kts 243°
2026-04-18 13:58 48.73247 -89.23300 37736 ft 426 kts 243°
2026-04-18 13:59 48.70815 -89.31438 37727 ft 427 kts 243°
2026-04-18 13:59 48.68362 -89.39614 37727 ft 426 kts 243°
2026-04-18 14:00 48.65902 -89.47791 37730 ft 426 kts 243°
2026-04-18 14:00 48.63443 -89.55933 37728 ft 425 kts 243°
2026-04-18 14:01 48.61001 -89.63993 37730 ft 424 kts 243°
2026-04-18 14:01 48.58543 -89.72085 37733 ft 423 kts 243°
2026-04-18 14:02 48.56084 -89.80149 37737 ft 422 kts 243°
2026-04-18 14:02 48.53628 -89.88180 37737 ft 421 kts 243°
2026-04-18 14:03 48.51167 -89.96204 37741 ft 421 kts 243°
2026-04-18 14:03 48.48647 -90.04173 37748 ft 421 kts 241°
2026-04-18 14:04 48.45889 -90.12029 37763 ft 427 kts 240°
2026-04-18 14:04 48.43056 -90.19976 37751 ft 433 kts 240°
2026-04-18 14:05 48.40224 -90.27984 37767 ft 438 kts 240°
2026-04-18 14:05 48.37354 -90.36129 37782 ft 442 kts 240°
2026-04-18 14:06 48.34464 -90.44328 37816 ft 445 kts 240°
2026-04-18 14:06 48.32035 -90.51197 37785 ft 448 kts 240°
2026-04-18 14:07 48.29096 -90.59485 37786 ft 451 kts 240°
2026-04-18 14:07 48.25652 -90.69160 37791 ft 453 kts 240°
2026-04-18 14:08 48.21661 -90.80329 37765 ft 454 kts 240°
2026-04-18 14:09 48.18689 -90.88616 37819 ft 454 kts 240°
2026-04-18 14:09 48.15689 -90.96952 37810 ft 454 kts 240°
2026-04-18 14:10 48.12677 -91.05293 37804 ft 454 kts 240°
2026-04-18 14:10 48.09667 -91.13606 37811 ft 454 kts 240°
2026-04-18 14:11 48.06655 -91.21896 37819 ft 453 kts 240°
2026-04-18 14:11 48.03641 -91.30167 37833 ft 453 kts 240°
2026-04-18 14:12 48.00637 -91.38383 37831 ft 453 kts 240°
2026-04-18 14:12 47.97608 -91.46643 37815 ft 453 kts 240°
2026-04-18 14:13 47.94584 -91.54863 37815 ft 452 kts 240°
2026-04-18 14:13 47.91551 -91.63084 37811 ft 452 kts 239°
2026-04-18 14:14 47.88516 -91.71283 37816 ft 451 kts 239°
2026-04-18 14:14 47.85471 -91.79483 37801 ft 452 kts 239°
2026-04-18 14:15 47.82441 -91.87615 37855 ft 452 kts 239°
2026-04-18 14:15 47.79380 -91.95809 37853 ft 453 kts 239°
2026-04-18 14:16 47.76317 -92.03982 37859 ft 452 kts 239°
2026-04-18 14:16 47.73248 -92.12147 37876 ft 452 kts 239°
2026-04-18 14:17 47.70170 -92.20310 37872 ft 453 kts 239°
2026-04-18 14:17 47.65525 -92.32582 37867 ft 455 kts 239°
2026-04-18 14:18 47.60882 -92.44792 37870 ft 455 kts 239°
2026-04-18 14:19 47.56193 -92.57068 37848 ft 457 kts 239°
2026-04-18 14:20 47.51474 -92.69364 37865 ft 458 kts 239°
2026-04-18 14:20 47.48315 -92.77565 37878 ft 459 kts 239°
2026-04-18 14:21 47.45148 -92.85763 37863 ft 459 kts 239°
2026-04-18 14:21 47.41970 -92.93963 37873 ft 460 kts 239°
2026-04-18 14:22 47.37183 -93.06268 37878 ft 461 kts 239°
2026-04-18 14:23 47.32389 -93.18534 37893 ft 462 kts 239°
2026-04-18 14:23 47.27563 -93.30828 37921 ft 461 kts 239°
2026-04-18 14:24 47.22718 -93.43113 37919 ft 463 kts 239°
2026-04-18 14:25 47.19476 -93.51302 37921 ft 463 kts 239°
2026-04-18 14:25 47.16242 -93.59447 37918 ft 464 kts 239°
2026-04-18 14:26 47.12980 -93.67637 37920 ft 464 kts 239°
2026-04-18 14:26 47.09714 -93.75816 37942 ft 464 kts 239°
2026-04-18 14:27 47.06446 -93.83973 37950 ft 463 kts 239°
2026-04-18 14:27 47.03174 -93.92119 37943 ft 463 kts 239°
2026-04-18 14:28 46.99918 -94.00200 37940 ft 463 kts 238°
2026-04-18 14:28 46.96464 -94.08158 37942 ft 462 kts 236°
2026-04-18 14:29 46.92869 -94.15982 37936 ft 463 kts 236°
2026-04-18 14:29 46.89269 -94.23830 37928 ft 464 kts 236°
2026-04-18 14:30 46.85698 -94.31674 37943 ft 464 kts 236°
2026-04-18 14:30 46.82150 -94.39483 37944 ft 464 kts 236°
2026-04-18 14:31 46.78578 -94.47327 37944 ft 464 kts 236°
2026-04-18 14:31 46.74995 -94.55171 37945 ft 465 kts 236°
2026-04-18 14:32 46.71400 -94.63018 37957 ft 465 kts 236°
2026-04-18 14:32 46.67795 -94.70863 37981 ft 466 kts 236°
2026-04-18 14:33 46.64179 -94.78710 37979 ft 467 kts 236°
2026-04-18 14:33 46.60551 -94.86560 38001 ft 468 kts 236°
2026-04-18 14:34 46.56932 -94.94369 37986 ft 469 kts 236°
2026-04-18 14:34 46.53275 -95.02239 37988 ft 470 kts 236°
2026-04-18 14:35 46.49606 -95.10110 37982 ft 471 kts 236°
2026-04-18 14:35 46.45924 -95.17989 37982 ft 472 kts 236°
2026-04-18 14:36 46.42230 -95.25870 37979 ft 472 kts 236°
2026-04-18 14:36 46.38532 -95.33739 38012 ft 472 kts 236°
2026-04-18 14:37 46.34826 -95.41601 38014 ft 473 kts 236°
2026-04-18 14:37 46.31114 -95.49455 38029 ft 473 kts 236°
2026-04-18 14:38 46.27421 -95.57247 38028 ft 473 kts 236°
2026-04-18 14:38 46.23693 -95.65090 38036 ft 473 kts 236°
2026-04-18 14:39 46.19955 -95.72933 38028 ft 473 kts 236°
2026-04-18 14:39 46.16217 -95.80753 38046 ft 473 kts 236°
2026-04-18 14:40 46.12471 -95.88568 38049 ft 473 kts 236°
2026-04-18 14:40 46.08721 -95.96372 38056 ft 473 kts 236°
2026-04-18 14:41 46.04960 -96.04175 38055 ft 474 kts 236°
2026-04-18 14:41 46.01213 -96.11927 38058 ft 474 kts 236°
2026-04-18 14:42 45.97441 -96.19710 38070 ft 474 kts 236°
2026-04-18 14:42 45.93662 -96.27487 38080 ft 474 kts 236°
2026-04-18 14:43 45.89882 -96.35243 38096 ft 474 kts 236°
2026-04-18 14:43 45.86089 -96.43005 38102 ft 475 kts 236°
2026-04-18 14:44 45.82285 -96.50768 38099 ft 475 kts 236°
2026-04-18 14:44 45.78477 -96.58519 38087 ft 476 kts 236°
2026-04-18 14:45 45.74659 -96.66268 38094 ft 475 kts 236°
2026-04-18 14:45 45.70871 -96.73936 38094 ft 475 kts 236°
2026-04-18 14:46 45.67039 -96.81670 38108 ft 476 kts 236°
2026-04-18 14:46 45.63207 -96.89385 38112 ft 476 kts 236°
2026-04-18 14:47 45.59363 -96.97102 38118 ft 477 kts 236°
2026-04-18 14:47 45.55503 -97.04830 38084 ft 477 kts 236°
2026-04-18 14:48 45.51645 -97.12535 38112 ft 477 kts 236°
2026-04-18 14:48 45.47783 -97.20225 38126 ft 477 kts 236°
2026-04-18 14:49 45.43911 -97.27914 38126 ft 478 kts 236°
2026-04-18 14:49 45.40031 -97.35599 38130 ft 478 kts 236°
2026-04-18 14:50 45.36143 -97.43279 38128 ft 478 kts 236°
2026-04-18 14:50 45.32245 -97.50957 38122 ft 478 kts 236°
2026-04-18 14:51 45.28378 -97.58554 38135 ft 477 kts 236°
2026-04-18 14:51 45.24484 -97.66185 38136 ft 477 kts 236°
2026-04-18 14:52 45.20580 -97.73813 38144 ft 477 kts 236°
2026-04-18 14:52 45.16675 -97.81423 38144 ft 477 kts 236°
2026-04-18 14:53 45.12765 -97.89025 38159 ft 477 kts 236°
2026-04-18 14:53 45.09505 -97.95346 38141 ft 477 kts 236°
2026-04-18 14:54 45.05581 -98.02935 38156 ft 477 kts 236°
2026-04-18 14:54 45.01663 -98.10495 38165 ft 477 kts 236°
2026-04-18 14:55 44.97757 -98.18010 38168 ft 477 kts 236°
2026-04-18 14:55 44.93826 -98.25554 38171 ft 477 kts 236°
2026-04-18 14:56 44.89883 -98.33101 38182 ft 478 kts 235°
2026-04-18 14:56 44.85941 -98.40627 38181 ft 477 kts 236°
2026-04-18 14:57 44.81989 -98.48152 38180 ft 477 kts 235°
2026-04-18 14:57 44.78031 -98.55668 38182 ft 478 kts 235°
2026-04-18 14:58 44.74064 -98.63182 38186 ft 478 kts 235°
2026-04-18 14:58 44.70089 -98.70692 38187 ft 479 kts 235°
2026-04-18 14:59 44.66108 -98.78191 38180 ft 479 kts 236°
2026-04-18 14:59 44.62138 -98.85653 38187 ft 480 kts 235°
2026-04-18 15:00 44.58136 -98.93154 38195 ft 480 kts 235°
2026-04-18 15:00 44.54129 -99.00647 38193 ft 481 kts 235°
2026-04-18 15:01 44.50104 -99.08152 38194 ft 481 kts 235°
2026-04-18 15:01 44.46072 -99.15651 38194 ft 481 kts 235°
2026-04-18 15:02 44.42034 -99.23142 38199 ft 482 kts 235°
2026-04-18 15:02 44.37988 -99.30629 38199 ft 483 kts 235°
2026-04-18 15:03 44.33957 -99.38067 38201 ft 483 kts 235°
2026-04-18 15:03 44.29888 -99.45557 38204 ft 483 kts 235°
2026-04-18 15:04 44.25814 -99.53036 38203 ft 484 kts 235°
2026-04-18 15:04 44.21737 -99.60505 38208 ft 484 kts 235°
2026-04-18 15:05 44.17657 -99.67957 38209 ft 483 kts 235°
2026-04-18 15:05 44.13601 -99.75347 38216 ft 483 kts 235°
2026-04-18 15:06 44.09516 -99.82772 38213 ft 483 kts 235°
2026-04-18 15:06 44.05426 -99.90187 38214 ft 483 kts 235°
2026-04-18 15:07 44.01337 -99.97584 38216 ft 482 kts 235°
2026-04-18 15:07 43.97291 -100.05007 38197 ft 482 kts 236°
2026-04-18 15:08 43.93344 -100.12513 38218 ft 481 kts 237°
2026-04-18 15:08 43.89405 -100.20019 38224 ft 480 kts 237°
2026-04-18 15:09 43.85457 -100.27486 38221 ft 480 kts 237°
2026-04-18 15:09 43.81524 -100.34882 38220 ft 480 kts 236°
2026-04-18 15:10 43.77557 -100.42320 38223 ft 480 kts 236°
2026-04-18 15:10 43.73582 -100.49753 38208 ft 480 kts 236°
2026-04-18 15:11 43.69609 -100.57164 38221 ft 480 kts 236°
2026-04-18 15:11 43.65624 -100.64578 38223 ft 480 kts 236°
2026-04-18 15:12 43.61639 -100.71976 38215 ft 480 kts 236°
2026-04-18 15:12 43.57646 -100.79369 38224 ft 480 kts 236°
2026-04-18 15:13 43.53649 -100.86750 38215 ft 481 kts 236°
2026-04-18 15:13 43.49669 -100.94082 38191 ft 481 kts 236°
2026-04-18 15:14 43.45656 -101.01457 38196 ft 480 kts 236°
2026-04-18 15:14 43.41639 -101.08820 38198 ft 480 kts 236°
2026-04-18 15:15 43.35615 -101.19826 38204 ft 480 kts 236°
2026-04-18 15:15 43.31594 -101.27152 38222 ft 480 kts 236°
2026-04-18 15:16 43.27564 -101.34475 38218 ft 481 kts 236°
2026-04-18 15:16 43.23524 -101.41798 38222 ft 480 kts 236°
2026-04-18 15:17 43.19489 -101.49093 38220 ft 480 kts 236°
2026-04-18 15:17 43.15446 -101.56386 38233 ft 480 kts 236°
2026-04-18 15:18 43.11424 -101.63621 38228 ft 480 kts 236°
2026-04-18 15:18 43.07372 -101.70893 38217 ft 481 kts 236°
2026-04-18 15:19 43.03310 -101.78167 38231 ft 481 kts 236°
2026-04-18 15:19 42.99241 -101.85435 38223 ft 482 kts 236°
2026-04-18 15:20 42.95160 -101.92705 38230 ft 482 kts 236°
2026-04-18 15:20 42.91072 -101.99970 38227 ft 482 kts 236°
2026-04-18 15:21 42.86979 -102.07226 38196 ft 482 kts 236°
2026-04-18 15:21 42.82903 -102.14435 38203 ft 483 kts 236°
2026-04-18 15:22 42.78794 -102.21684 38230 ft 483 kts 236°
2026-04-18 15:22 42.74682 -102.28921 38219 ft 483 kts 236°
2026-04-18 15:23 42.70574 -102.36134 38225 ft 482 kts 236°
2026-04-18 15:23 42.66460 -102.43338 38212 ft 482 kts 236°
2026-04-18 15:24 42.62346 -102.50527 38237 ft 482 kts 236°
2026-04-18 15:24 42.58255 -102.57658 38232 ft 482 kts 236°
2026-04-18 15:25 42.54128 -102.64835 38253 ft 482 kts 236°
2026-04-18 15:25 42.49996 -102.72003 38241 ft 482 kts 236°
2026-04-18 15:26 42.45865 -102.79150 38213 ft 482 kts 236°
2026-04-18 15:26 42.41732 -102.86286 38238 ft 482 kts 236°
2026-04-18 15:27 42.37583 -102.93433 38260 ft 483 kts 236°
2026-04-18 15:27 42.33423 -103.00581 38252 ft 484 kts 236°
2026-04-18 15:28 42.29246 -103.07740 38259 ft 485 kts 236°
2026-04-18 15:28 42.25059 -103.14899 38225 ft 485 kts 236°
2026-04-18 15:29 42.20904 -103.21986 38262 ft 484 kts 236°
2026-04-18 15:29 42.16719 -103.29108 38257 ft 484 kts 236°
2026-04-18 15:30 42.12533 -103.36214 38264 ft 483 kts 236°
2026-04-18 15:30 42.08347 -103.43305 38267 ft 483 kts 236°
2026-04-18 15:31 42.04164 -103.50373 38259 ft 483 kts 236°
2026-04-18 15:31 41.99981 -103.57424 38270 ft 482 kts 236°
2026-04-18 15:32 41.95798 -103.64460 38278 ft 481 kts 236°
2026-04-18 15:32 41.91642 -103.71435 38264 ft 481 kts 236°
2026-04-18 15:33 41.87457 -103.78441 38265 ft 481 kts 236°
2026-04-18 15:33 41.83266 -103.85439 38281 ft 480 kts 236°
2026-04-18 15:34 41.79078 -103.92418 38272 ft 480 kts 237°
2026-04-18 15:34 41.74887 -103.99387 38250 ft 480 kts 237°
2026-04-18 15:35 41.70697 -104.06335 38275 ft 479 kts 237°
2026-04-18 15:35 41.66506 -104.13271 38269 ft 479 kts 237°
2026-04-18 15:36 41.62311 -104.20197 38268 ft 479 kts 237°
2026-04-18 15:36 41.58117 -104.27105 38270 ft 478 kts 237°
2026-04-18 15:37 41.53944 -104.33965 38275 ft 478 kts 237°
2026-04-18 15:37 41.49750 -104.40841 38285 ft 478 kts 237°
2026-04-18 15:38 41.45557 -104.47701 38274 ft 477 kts 237°
2026-04-18 15:38 41.41366 -104.54543 38281 ft 476 kts 237°
2026-04-18 15:39 41.37163 -104.61389 38266 ft 476 kts 237°
2026-04-18 15:39 41.32963 -104.68214 38260 ft 476 kts 237°
2026-04-18 15:40 41.28787 -104.74985 38254 ft 476 kts 237°
2026-04-18 15:40 41.24576 -104.81797 38249 ft 476 kts 237°
2026-04-18 15:41 41.20372 -104.88582 38245 ft 475 kts 237°
2026-04-18 15:41 41.16164 -104.95359 38243 ft 474 kts 237°
2026-04-18 15:42 41.12676 -105.00964 38270 ft 474 kts 237°
2026-04-18 15:42 41.08478 -105.07699 38265 ft 473 kts 237°
2026-04-18 15:43 41.04285 -105.14411 38264 ft 472 kts 237°
2026-04-18 15:43 41.00092 -105.21107 38262 ft 472 kts 237°
2026-04-18 15:44 40.95925 -105.27748 38226 ft 472 kts 237°
2026-04-18 15:44 40.91732 -105.34413 38252 ft 470 kts 237°
2026-04-18 15:45 40.87555 -105.41038 38244 ft 468 kts 237°
2026-04-18 15:45 40.83385 -105.47641 38259 ft 467 kts 237°
2026-04-18 15:46 40.79220 -105.54224 38281 ft 467 kts 237°
2026-04-18 15:46 40.75046 -105.60804 38288 ft 467 kts 237°
2026-04-18 15:47 40.70867 -105.67376 38297 ft 467 kts 236°
2026-04-18 15:47 40.66696 -105.73921 38340 ft 466 kts 237°
2026-04-18 15:48 40.62540 -105.80434 38372 ft 468 kts 237°
2026-04-18 15:48 40.58346 -105.86993 38380 ft 469 kts 237°
2026-04-18 15:49 40.54139 -105.93556 38434 ft 469 kts 236°
2026-04-18 15:49 40.49985 -106.00178 38407 ft 467 kts 240°
2026-04-18 15:50 40.46507 -106.07298 38441 ft 462 kts 244°
2026-04-18 15:50 40.43152 -106.14511 38436 ft 463 kts 244°
2026-04-18 15:51 40.39790 -106.21676 38424 ft 463 kts 244°
2026-04-18 15:51 40.36396 -106.28863 38432 ft 464 kts 244°
2026-04-18 15:52 40.32990 -106.36052 38411 ft 464 kts 244°
2026-04-18 15:52 40.29576 -106.43237 38433 ft 465 kts 244°
2026-04-18 15:53 40.26152 -106.50430 38430 ft 466 kts 244°
2026-04-18 15:53 40.22724 -106.57614 38443 ft 465 kts 244°
2026-04-18 15:54 40.19291 -106.64792 38441 ft 465 kts 244°
2026-04-18 15:54 40.15846 -106.71980 38412 ft 466 kts 243°
2026-04-18 15:55 40.12399 -106.79155 38422 ft 466 kts 243°
2026-04-18 15:55 40.08951 -106.86318 38426 ft 466 kts 243°
2026-04-18 15:56 40.05520 -106.93427 38429 ft 465 kts 243°
2026-04-18 15:56 40.02058 -107.00581 38424 ft 465 kts 243°
2026-04-18 15:57 39.98599 -107.07715 38429 ft 465 kts 243°
2026-04-18 15:57 39.95143 -107.14832 38426 ft 464 kts 243°
2026-04-18 15:58 39.91683 -107.21933 38445 ft 464 kts 243°
2026-04-18 15:58 39.88214 -107.29039 38439 ft 465 kts 243°
2026-04-18 15:59 39.84754 -107.36110 38417 ft 465 kts 243°
2026-04-18 15:59 39.81276 -107.43205 38405 ft 465 kts 243°
2026-04-18 16:00 39.77794 -107.50290 38411 ft 464 kts 243°
2026-04-18 16:00 39.74313 -107.57357 38406 ft 464 kts 242°
2026-04-18 16:01 39.70834 -107.64404 38395 ft 463 kts 242°
2026-04-18 16:01 39.67349 -107.71447 38398 ft 463 kts 242°
2026-04-18 16:02 39.63890 -107.78423 38396 ft 462 kts 242°
2026-04-18 16:02 39.60408 -107.85431 38379 ft 461 kts 242°
2026-04-18 16:03 39.56925 -107.92423 38389 ft 461 kts 242°
2026-04-18 16:03 39.53431 -107.99425 38379 ft 462 kts 242°
2026-04-18 16:04 39.49932 -108.06420 38370 ft 463 kts 242°
2026-04-18 16:04 39.46454 -108.13354 38328 ft 462 kts 242°
2026-04-18 16:05 39.42951 -108.20325 38371 ft 462 kts 242°
2026-04-18 16:05 39.39439 -108.27305 38357 ft 463 kts 242°
2026-04-18 16:06 39.35920 -108.34277 38376 ft 463 kts 242°
2026-04-18 16:06 39.32396 -108.41242 38397 ft 463 kts 242°
2026-04-18 16:07 39.28873 -108.48194 38390 ft 463 kts 241°
2026-04-18 16:07 39.25427 -108.54965 38389 ft 445 kts 241°
2026-04-18 16:08 39.22042 -108.61612 38395 ft 442 kts 242°
2026-04-18 16:08 39.18672 -108.68225 38397 ft 441 kts 242°
2026-04-18 16:09 39.15302 -108.74824 38390 ft 441 kts 242°
2026-04-18 16:09 39.11922 -108.81425 38345 ft 441 kts 241°
2026-04-18 16:10 39.08535 -108.88028 38358 ft 443 kts 241°
2026-04-18 16:10 39.05146 -108.94616 38349 ft 445 kts 241°
2026-04-18 16:11 39.01723 -109.01258 38352 ft 446 kts 241°
2026-04-18 16:11 38.98278 -109.07927 38350 ft 447 kts 241°
2026-04-18 16:12 38.94828 -109.14594 38331 ft 448 kts 241°
2026-04-18 16:12 38.91375 -109.21253 38343 ft 448 kts 241°
2026-04-18 16:13 38.87918 -109.27905 38333 ft 448 kts 241°
2026-04-18 16:13 38.84461 -109.34543 38344 ft 447 kts 241°
2026-04-18 16:14 38.81005 -109.41165 38328 ft 446 kts 240°
2026-04-18 16:14 38.77551 -109.47770 38320 ft 445 kts 240°
2026-04-18 16:15 38.72377 -109.57642 38336 ft 445 kts 240°
2026-04-18 16:16 38.68923 -109.64215 38344 ft 445 kts 240°
2026-04-18 16:16 38.65487 -109.70740 38326 ft 445 kts 240°
2026-04-18 16:17 38.62026 -109.77301 38326 ft 445 kts 240°
2026-04-18 16:17 38.58563 -109.83851 38320 ft 445 kts 240°
2026-04-18 16:18 38.55091 -109.90409 38332 ft 446 kts 240°
2026-04-18 16:18 38.51610 -109.96969 38325 ft 447 kts 240°
2026-04-18 16:19 38.48133 -110.03543 38322 ft 446 kts 240°
2026-04-18 16:19 38.44706 -110.10142 38317 ft 446 kts 241°
2026-04-18 16:20 38.41280 -110.16742 38308 ft 446 kts 240°
2026-04-18 16:20 38.37845 -110.23340 38319 ft 447 kts 240°
2026-04-18 16:21 38.34398 -110.29933 38320 ft 447 kts 240°
2026-04-18 16:21 38.30941 -110.36531 38322 ft 448 kts 240°
2026-04-18 16:22 38.27495 -110.43096 38315 ft 448 kts 240°
2026-04-18 16:22 38.24026 -110.49690 38301 ft 447 kts 240°
2026-04-18 16:23 38.20563 -110.56257 38326 ft 447 kts 240°
2026-04-18 16:23 38.15360 -110.66106 38343 ft 448 kts 240°
2026-04-18 16:24 38.11876 -110.72681 38332 ft 448 kts 240°
2026-04-18 16:24 38.08399 -110.79232 38327 ft 446 kts 240°
2026-04-18 16:25 38.04916 -110.85781 38310 ft 448 kts 240°
2026-04-18 16:25 38.01418 -110.92345 38306 ft 449 kts 240°
2026-04-18 16:26 37.97910 -110.98916 38309 ft 451 kts 239°
2026-04-18 16:26 37.94412 -111.05454 38302 ft 452 kts 239°
2026-04-18 16:27 37.91185 -111.11472 38301 ft 452 kts 239°
2026-04-18 16:27 37.87643 -111.18066 38289 ft 452 kts 239°
2026-04-18 16:28 37.84103 -111.24645 38282 ft 452 kts 239°
2026-04-18 16:28 37.80579 -111.31181 38287 ft 451 kts 239°
2026-04-18 16:29 37.77037 -111.37736 38288 ft 450 kts 239°
2026-04-18 16:29 37.73501 -111.44268 38288 ft 450 kts 239°
2026-04-18 16:30 37.70566 -111.49678 38291 ft 449 kts 239°
2026-04-18 16:30 37.67035 -111.56177 38282 ft 448 kts 239°
2026-04-18 16:31 37.63508 -111.62658 38292 ft 448 kts 239°
2026-04-18 16:31 37.59974 -111.69139 38284 ft 448 kts 239°
2026-04-18 16:32 37.56432 -111.75620 38286 ft 448 kts 239°
2026-04-18 16:32 37.52887 -111.82098 38271 ft 449 kts 239°
2026-04-18 16:33 37.49753 -111.87804 38285 ft 449 kts 238°
2026-04-18 16:33 37.46050 -111.94162 38274 ft 450 kts 236°
2026-04-18 16:34 37.42305 -112.00478 38284 ft 450 kts 237°
2026-04-18 16:34 37.38604 -112.06776 38261 ft 450 kts 237°
2026-04-18 16:35 37.34889 -112.13120 38260 ft 450 kts 237°
2026-04-18 16:35 37.31177 -112.19465 38264 ft 451 kts 237°
2026-04-18 16:36 37.27457 -112.25815 38252 ft 452 kts 237°
2026-04-18 16:36 37.23725 -112.32169 38257 ft 452 kts 237°
2026-04-18 16:37 37.19990 -112.38516 38243 ft 452 kts 237°
2026-04-18 16:37 37.16250 -112.44858 38240 ft 452 kts 237°
2026-04-18 16:38 37.12505 -112.51199 38233 ft 452 kts 237°
2026-04-18 16:38 37.08782 -112.57493 38223 ft 452 kts 237°
2026-04-18 16:39 37.05036 -112.63810 38238 ft 452 kts 236°
2026-04-18 16:39 37.01272 -112.70135 38249 ft 453 kts 236°
2026-04-18 16:40 36.97498 -112.76467 38258 ft 453 kts 236°
2026-04-18 16:40 36.93725 -112.82787 38277 ft 453 kts 236°
2026-04-18 16:41 36.88055 -112.92265 38299 ft 454 kts 236°
2026-04-18 16:42 36.84272 -112.98574 38292 ft 454 kts 236°
2026-04-18 16:42 36.80486 -113.04877 38267 ft 454 kts 236°
2026-04-18 16:43 36.76726 -113.11124 38251 ft 453 kts 236°
2026-04-18 16:43 36.72936 -113.17410 38242 ft 453 kts 236°
2026-04-18 16:44 36.69142 -113.23691 38229 ft 453 kts 236°
2026-04-18 16:44 36.65341 -113.29976 38203 ft 454 kts 236°
2026-04-18 16:45 36.61570 -113.36227 38208 ft 454 kts 237°
2026-04-18 16:45 36.57916 -113.42625 38194 ft 453 kts 238°
2026-04-18 16:46 36.54303 -113.49047 38196 ft 453 kts 238°
2026-04-18 16:46 36.50668 -113.55464 38178 ft 454 kts 238°
2026-04-18 16:47 36.47017 -113.61864 38176 ft 454 kts 237°
2026-04-18 16:47 36.43356 -113.68258 38165 ft 454 kts 237°
2026-04-18 16:48 36.39693 -113.74649 38165 ft 454 kts 237°
2026-04-18 16:48 36.36021 -113.81044 38140 ft 455 kts 237°
2026-04-18 16:49 36.32360 -113.87407 38142 ft 456 kts 237°
2026-04-18 16:49 36.28668 -113.93811 38130 ft 457 kts 237°
2026-04-18 16:50 36.24967 -114.00221 38121 ft 457 kts 237°
2026-04-18 16:50 36.21262 -114.06625 38114 ft 457 kts 237°
2026-04-18 16:51 36.17560 -114.13012 38117 ft 456 kts 237°
2026-04-18 16:51 36.13852 -114.19400 38111 ft 457 kts 237°
2026-04-18 16:52 36.10138 -114.25785 38099 ft 457 kts 237°
2026-04-18 16:52 36.06177 -114.31947 38103 ft 460 kts 231°
2026-04-18 16:53 36.01892 -114.37832 38103 ft 461 kts 231°
2026-04-18 16:53 35.97598 -114.43724 38100 ft 461 kts 231°
2026-04-18 16:54 35.93344 -114.49594 38119 ft 462 kts 231°
2026-04-18 16:54 35.89057 -114.55515 38121 ft 463 kts 231°
2026-04-18 16:55 35.84768 -114.61429 38108 ft 463 kts 231°
2026-04-18 16:55 35.80462 -114.67354 38147 ft 463 kts 231°
2026-04-18 16:56 35.76156 -114.73270 38146 ft 463 kts 231°
2026-04-18 16:56 35.71849 -114.79175 38178 ft 463 kts 231°
2026-04-18 16:57 35.67548 -114.85065 38179 ft 462 kts 231°
2026-04-18 16:57 35.63275 -114.90916 38178 ft 462 kts 231°
2026-04-18 16:58 35.58983 -114.96803 38175 ft 462 kts 231°
2026-04-18 16:58 35.54687 -115.02686 38162 ft 462 kts 231°
2026-04-18 16:59 35.50387 -115.08564 38180 ft 461 kts 232°